GFSGL_sfc_temp_000.txt.gz
Temp
57 56 55 54 55 54 53 53 53 53 53 53 54 54 53 52 53 51 49 49 49 49 49 48 47 47 46 48 50 52 51 51 48 53 55 59 66 68 65 66 64 64 65
57 56 55 54 54 53 53 53 54 53 54 54 54 54 55 52 51 49 49 52 48 48 49 47 47 49 48 49 52 52 52 53 53 51 55 56 62 68 65 64 63 66 63
57 55 54 53 52 51 52 53 54 54 54 54 55 52 53 53 52 50 50 50 49 50 48 48 49 49 49 50 51 52 53 55 54 53 53 57 66 66 62 64 63 63 64
55 54 52 51 52 51 52 52 53 54 54 53 54 54 53 54 52 51 50 47 50 51 50 50 50 49 50 51 52 52 54 53 54 52 52 57 64 64 63 59 59 62 61
54 53 51 52 52 52 52 52 53 52 53 54 55 54 53 54 56 50 49 48 49 50 51 51 50 52 55 56 55 54 55 53 53 52 52 58 61 58 58 61 60 61 60
53 52 53 53 53 51 51 51 51 51 50 52 52 52 52 55 58 58 56 50 50 49 48 49 50 52 53 57 57 60 58 53 52 52 53 55 59 60 61 61 61 59 55
53 53 53 53 52 51 52 51 49 48 49 49 50 50 50 51 58 58 58 53 48 48 48 49 49 52 53 53 56 60 61 60 59 55 54 58 61 63 63 62 62 61 59
52 52 52 52 51 51 50 48 47 48 48 48 49 50 49 51 57 58 58 52 47 49 49 49 49 49 51 53 54 56 57 59 58 58 55 57 66 67 66 67 65 63 60
51 51 52 52 50 49 47 46 46 47 47 48 50 49 49 50 57 58 57 48 46 48 50 50 50 49 53 55 53 53 56 57 61 60 60 59 65 66 68 67 64 60 57
51 52 52 51 49 48 47 46 46 46 49 51 51 50 53 50 55 57 56 50 46 47 49 50 51 51 53 54 52 53 54 57 58 59 59 59 62 65 66 69 66 60 59
53 53 52 50 49 48 47 46 46 46 47 47 48 49 50 50 50 55 55 52 49 47 47 48 49 52 53 54 55 55 56 59 58 58 60 60 61 65 69 70 70 65 60
52 51 50 49 51 53 46 45 45 45 44 44 45 45 47 48 52 53 54 55 54 47 46 48 48 51 53 55 55 57 58 60 59 57 58 60 60 65 68 70 69 67 68
50 48 48 49 49 49 46 45 44 44 43 43 45 43 45 47 47 52 53 53 52 49 49 50 51 52 53 54 56 56 58 59 58 57 58 59 63 68 70 69 69 67 60
48 47 47 46 47 47 48 47 44 43 41 43 44 43 43 44 45 47 49 48 50 49 50 48 50 51 53 53 53 55 57 59 58 58 59 62 66 67 68 68 62 63 61
47 47 46 47 46 45 46 45 46 43 44 44 45 45 42 42 46 49 49 49 47 48 49 48 48 47 47 49 51 52 54 58 57 59 60 61 64 67 67 67 64 60 58
46 46 45 45 44 44 43 44 52 51 51 51 50 49 48 49 50 51 51 51 50 51 48 45 45 45 45 46 48 49 52 57 59 60 60 62 64 65 64 65 62 60 58
44 45 44 46 44 42 42 40 38 45 50 50 51 51 51 51 51 51 51 50 50 51 44 44 44 44 44 45 47 48 50 53 60 60 61 64 65 65 64 63 62 60 59
45 50 43 43 42 42 40 40 41 40 40 41 48 50 51 52 51 50 50 49 46 46 45 44 44 44 44 44 46 47 50 53 58 60 62 63 65 64 64 62 62 60 59
44 43 43 42 42 43 41 40 40 40 40 40 43 46 49 51 51 51 50 44 44 43 45 44 45 44 44 45 46 47 50 52 56 59 60 62 64 64 63 63 62 59 58
43 48 47 42 43 41 40 39 39 40 38 40 40 42 43 45 44 45 45 44 45 43 45 44 44 45 44 45 46 47 49 52 56 59 58 60 63 63 63 62 61 58 59
41 41 45 40 40 43 39 41 42 39 38 38 39 43 48 44 43 45 46 45 45 45 46 46 44 45 45 45 46 46 48 50 53 58 58 59 61 61 62 62 61 61 58
39 39 40 42 43 43 40 40 41 39 40 41 42 44 47 44 44 45 46 46 46 47 47 48 45 46 45 45 45 46 47 48 49 59 58 59 60 61 62 61 60 59 57
42 42 42 41 41 41 40 40 40 40 40 41 42 42 43 43 44 45 46 46 46 46 47 48 46 46 46 46 47 47 47 47 47 52 60 60 61 61 61 59 59 57 57
42 41 40 39 39 39 38 38 39 40 41 41 41 42 42 43 43 44 46 46 47 46 47 47 47 47 47 47 47 48 48 46 46 49 61 60 60 58 60 59 58 58 57
40 39 39 38 38 37 37 38 38 39 39 41 41 43 43 43 43 44 45 46 46 44 46 47 47 47 48 47 46 46 44 42 44 45 62 62 61 60 59 59 58 58 57
39 39 38 38 35 37 37 37 37 38 39 40 41 41 42 42 39 43 44 45 46 43 46 46 47 48 48 47 46 43 43 43 45 45 59 61 60 59 59 58 57 56 55

GFSGL_sfc_temp_003.txt.gz
Temp
55 53 52 51 52 51 50 50 50 50 50 49 50 50 49 49 48 47 46 45 45 46 47 47 48 50 47 47 47 47 46 46 44 48 51 53 54 55 63 66 66 66 67
54 52 51 52 51 49 49 49 50 49 50 50 50 50 51 50 48 46 47 49 47 47 47 47 49 50 47 48 47 47 48 49 48 47 51 52 53 57 61 63 65 67 66
53 51 51 51 49 48 48 49 50 49 50 50 51 49 49 50 49 48 48 49 47 46 46 47 49 49 46 47 48 49 50 52 51 50 49 52 55 56 60 63 64 64 65
52 50 49 49 49 49 49 49 49 50 49 49 49 49 49 51 51 49 48 46 46 47 49 49 51 50 48 47 49 50 51 51 51 51 51 52 54 56 59 59 59 60 61
52 50 49 49 49 49 48 49 49 49 50 49 49 49 50 50 54 49 48 45 44 45 48 50 51 53 54 53 52 52 52 51 51 51 52 52 52 53 56 60 57 57 59
50 49 50 50 49 48 48 48 47 47 47 47 47 47 48 52 57 58 56 50 49 47 46 48 51 54 52 54 55 56 56 52 52 52 52 52 53 56 61 60 58 55 54
50 50 50 50 49 48 49 47 46 45 45 45 45 45 46 48 56 58 58 54 47 47 45 47 50 53 52 51 53 56 56 58 59 55 53 52 53 57 62 60 59 58 57
49 49 49 49 49 48 47 45 44 44 44 44 44 45 46 48 56 57 58 54 51 45 46 47 48 49 50 51 51 52 53 55 58 58 55 55 55 60 63 64 62 61 58
48 48 49 49 47 46 45 43 44 43 43 43 45 44 44 46 54 56 54 50 46 44 47 48 48 48 52 53 51 50 52 54 59 60 58 58 58 58 63 64 61 58 55
48 49 49 48 47 45 44 43 43 43 44 46 46 46 48 47 51 55 53 49 45 46 49 49 52 51 52 53 51 51 50 53 57 57 57 57 58 58 60 64 64 59 57
50 50 48 47 46 46 44 43 42 42 43 42 44 44 44 45 46 53 53 50 47 48 47 46 47 51 52 53 54 52 54 57 58 57 57 56 57 57 60 66 67 64 59
49 48 47 46 48 50 44 42 42 41 40 40 40 41 42 43 49 51 52 52 52 46 45 46 47 51 52 53 53 54 56 57 58 57 56 56 56 58 61 64 68 67 67
47 46 45 47 46 45 42 42 41 41 40 40 40 39 42 45 44 50 51 52 52 49 48 49 51 52 52 51 52 53 55 55 57 56 56 57 59 61 62 64 68 67 65
45 44 44 43 44 43 44 43 41 40 39 40 40 40 41 43 42 44 45 48 50 49 49 47 50 51 51 51 50 50 52 54 57 56 56 58 61 61 61 66 65 63 58
45 44 43 44 42 42 42 42 43 42 41 40 39 41 43 41 43 48 50 48 48 48 49 47 46 45 45 46 47 48 49 52 57 58 58 58 59 61 62 66 64 62 58
45 43 42 42 41 41 40 41 48 50 51 51 51 49 48 50 51 52 52 52 51 51 47 44 44 44 43 44 44 45 47 50 54 58 59 60 60 62 63 63 63 61 57
44 43 42 44 41 40 40 37 36 41 48 49 50 50 50 50 51 51 51 51 50 49 42 43 44 44 43 44 44 45 45 48 52 57 59 60 62 63 62 61 61 61 57
43 49 41 40 39 38 38 38 37 36 36 38 45 47 49 50 50 50 51 49 42 43 41 42 44 44 43 43 44 44 46 48 52 58 59 59 62 62 61 61 61 59 57
43 41 41 39 38 40 39 38 38 37 37 38 38 43 45 48 48 49 50 41 39 39 41 43 45 44 43 43 44 45 46 48 51 54 60 60 61 61 62 61 61 58 57
42 46 44 38 38 38 38 37 37 39 41 39 37 37 40 40 39 41 42 42 40 40 42 43 45 44 44 44 44 45 46 48 51 55 60 61 61 63 62 61 60 58 58
39 39 44 37 37 37 40 41 38 36 39 38 37 40 46 43 38 40 41 44 44 43 43 44 45 44 45 45 44 45 45 47 49 50 60 62 62 63 62 62 61 60 58
38 38 38 38 41 42 40 41 40 38 40 39 37 41 45 43 41 42 44 45 42 46 45 45 45 45 45 45 44 45 45 46 47 49 56 61 63 63 62 61 60 59 57
39 42 41 40 40 41 39 40 39 39 38 40 40 41 42 41 40 43 44 45 47 46 45 45 45 45 46 46 46 45 45 46 46 46 48 60 60 62 60 59 60 57 56
41 40 40 39 39 38 38 38 39 39 38 40 41 41 37 40 41 43 44 45 46 46 43 44 45 45 46 47 47 46 47 47 45 46 49 58 59 57 60 59 58 57 56
40 39 39 38 37 34 35 37 38 38 36 36 39 41 41 42 42 42 43 44 45 45 42 44 45 45 46 47 46 46 45 42 43 43 48 55 58 59 59 59 58 57 57
39 39 38 38 37 37 37 37 37 37 35 39 40 40 41 41 40 41 42 43 44 44 42 44 45 47 47 46 46 43 43 43 44 43 48 59 58 58 58 58 58 57 56

GFSGL_sfc_temp_006.txt.gz
Temp
54 52 50 50 49 49 48 48 48 48 48 48 48 48 47 47 47 45 44 44 43 44 45 45 45 46 45 46 47 47 45 44 41 45 47 49 51 51 54 56 57 61 67
54 53 52 50 49 48 48 48 48 48 48 48 48 48 48 47 46 44 44 46 45 44 44 44 45 48 46 47 47 46 45 46 44 43 47 48 50 52 54 55 56 65 65
54 52 50 49 48 48 48 48 48 48 47 48 48 47 47 47 46 45 44 46 45 45 45 44 45 46 45 46 48 46 46 48 48 46 47 51 51 51 53 56 55 64 65
53 51 50 49 48 47 48 48 48 48 47 47 47 47 47 47 47 46 46 44 44 46 46 46 46 47 46 47 48 48 48 49 50 49 49 50 50 52 53 54 56 62 63
53 50 50 49 48 48 47 47 47 47 47 46 46 46 46 47 51 47 46 44 44 44 45 46 48 50 56 56 50 48 48 49 50 49 50 49 50 49 51 53 58 60 62
53 51 50 49 47 47 47 46 46 45 44 45 45 45 44 50 55 56 55 50 46 45 45 47 47 52 51 56 55 54 53 50 50 50 50 49 50 52 53 53 57 58 56
52 51 50 49 47 47 47 46 44 43 43 43 43 43 43 44 54 56 57 52 49 47 48 46 46 51 51 50 52 53 54 56 56 53 51 52 52 54 54 54 57 59 58
50 50 49 48 47 46 45 44 42 42 42 42 43 43 42 45 54 56 56 47 44 44 45 45 44 46 49 50 49 50 51 52 53 55 55 55 55 56 55 61 62 62 60
49 49 49 48 46 45 43 42 42 41 42 42 42 42 41 42 52 55 53 45 43 42 45 45 45 47 51 54 49 48 50 52 57 57 59 59 58 57 57 59 59 56 54
49 49 48 47 45 43 43 42 42 41 43 43 43 42 46 43 49 53 52 47 43 45 47 44 50 50 53 53 49 49 48 50 54 56 56 56 58 58 58 60 62 58 56
49 49 47 45 44 44 43 41 41 41 41 40 41 41 41 42 42 52 53 48 46 45 46 46 45 51 52 53 53 49 49 53 53 55 56 56 56 56 57 59 65 62 57
49 47 45 44 48 47 42 41 40 39 38 38 38 39 41 42 48 49 52 52 51 47 46 46 44 51 53 53 52 53 53 53 52 54 55 55 55 55 57 60 66 65 64
46 44 44 44 44 44 41 40 39 39 38 38 38 38 39 42 41 49 50 51 51 48 49 49 51 52 52 50 51 52 52 49 49 50 55 56 57 58 60 61 65 66 65
45 44 42 42 42 42 43 41 39 39 37 38 38 37 38 40 39 40 43 46 49 49 48 45 49 50 51 50 48 48 48 48 48 49 56 57 59 58 59 61 60 62 59
45 44 43 43 44 43 41 40 41 39 40 38 38 38 37 38 42 48 49 48 48 47 48 44 44 44 45 45 45 46 47 47 47 54 56 56 57 58 59 60 62 61 57
46 43 43 42 42 40 39 39 47 48 50 50 50 47 44 49 50 51 51 51 51 51 43 40 40 42 43 44 43 43 45 46 47 49 57 57 57 58 59 60 60 60 57
45 44 43 44 41 39 38 37 35 40 47 48 49 50 49 49 50 50 50 50 51 49 38 39 40 42 43 44 43 43 43 45 47 48 54 58 58 59 60 60 58 60 57
45 48 42 41 39 39 37 36 36 35 35 36 44 46 47 48 48 48 49 48 40 41 38 38 40 42 43 43 43 43 44 45 47 49 51 58 59 59 60 58 60 59 57
43 42 41 40 39 39 37 36 36 35 35 37 41 43 44 46 46 47 48 39 37 37 37 39 41 42 44 44 43 44 44 45 47 49 52 58 60 60 59 60 61 57 56
43 46 42 39 39 37 36 35 35 37 39 38 38 36 37 38 36 38 39 38 38 37 38 39 41 43 44 44 43 44 44 45 46 48 49 59 60 61 61 61 61 56 56
41 41 44 39 38 37 36 40 41 39 39 39 37 39 45 40 36 36 38 38 42 39 41 43 41 43 44 44 44 44 44 45 46 47 48 54 59 60 62 62 60 58 57
39 39 39 38 39 40 39 40 39 39 40 39 37 38 44 42 41 38 39 43 44 45 46 45 42 43 44 44 45 44 44 44 45 47 46 47 58 59 61 61 59 58 56
39 40 40 39 40 41 39 40 39 39 39 36 39 40 41 37 36 37 40 44 45 45 46 45 42 43 45 45 46 45 43 44 45 46 45 47 55 58 59 59 58 57 55
40 39 38 38 39 38 37 35 38 39 39 36 36 39 40 39 37 39 43 43 44 45 45 44 43 44 45 46 46 46 45 46 45 45 46 47 51 56 57 57 58 57 55
39 38 38 38 37 37 36 35 37 37 38 37 35 37 38 38 38 39 42 42 43 43 44 43 44 45 45 45 46 46 45 42 43 42 46 48 51 60 58 57 58 57 54
39 39 38 38 37 36 36 36 37 37 37 37 37 37 36 36 37 40 42 42 42 43 44 42 43 45 45 45 46 43 42 42 43 42 44 48 55 58 58 57 57 56 55

GFSGL_sfc_temp_009.txt.gz
Temp
53 53 52 51 50 48 47 47 46 46 46 46 47 47 46 46 45 43 42 42 41 42 42 42 43 44 43 43 43 44 44 45 41 44 46 48 48 48 49 53 54 55 56
53 52 51 51 50 47 47 47 47 46 46 47 47 46 46 46 45 43 42 44 42 41 42 42 43 47 43 44 43 43 44 46 44 42 45 46 47 50 50 51 53 58 58
53 52 51 50 49 48 47 47 46 46 46 46 47 46 45 45 44 44 42 42 42 42 42 42 43 43 42 43 43 43 46 48 47 45 45 49 49 50 50 52 53 54 58
53 52 50 49 49 49 48 46 46 46 46 46 46 45 45 45 45 44 43 42 42 44 44 44 44 44 44 43 44 46 48 47 47 46 46 48 48 50 50 49 50 54 55
53 51 51 50 50 48 46 46 46 46 46 45 45 45 45 45 48 45 44 43 42 43 44 46 45 48 55 54 50 49 48 46 46 46 48 48 48 49 48 51 51 53 58
53 51 50 49 48 48 46 45 45 45 44 44 43 44 43 48 53 56 54 46 45 43 43 44 45 50 48 54 55 55 53 47 47 48 49 48 49 47 49 50 50 50 56
52 51 49 49 48 47 47 45 44 42 42 42 42 42 42 42 53 56 56 48 44 42 41 42 45 49 49 46 50 54 53 54 54 51 49 51 49 51 51 52 52 51 59
51 50 50 50 49 47 44 43 42 41 41 41 41 42 41 44 53 55 55 46 42 42 42 42 42 43 44 48 48 49 50 50 52 53 53 53 51 55 55 55 54 53 60
50 49 50 50 48 45 43 41 40 40 40 40 42 41 40 40 51 53 52 43 42 41 43 43 43 43 49 53 49 48 49 50 55 56 56 57 59 58 56 55 54 56 56
49 50 50 49 47 45 43 41 40 40 42 43 42 40 44 41 48 52 52 44 40 42 45 44 50 50 53 53 49 48 45 47 50 51 52 57 59 57 58 56 56 57 57
50 49 48 47 46 45 42 40 40 40 40 39 40 39 39 40 41 51 53 45 46 46 46 46 48 51 52 53 54 48 48 51 51 50 52 55 56 56 56 57 57 61 58
48 48 47 45 49 46 41 40 40 39 37 37 37 37 39 40 47 49 52 52 50 44 45 47 45 50 52 53 52 52 52 52 48 48 49 53 54 55 56 58 59 64 65
48 46 45 44 45 43 41 40 39 38 37 37 37 36 37 40 40 48 50 51 51 48 48 49 51 51 51 50 51 52 50 47 47 46 47 49 56 57 57 58 60 62 60
47 44 43 44 42 42 43 42 39 38 36 37 37 36 36 38 38 39 41 41 47 47 47 42 48 49 49 49 49 48 47 46 46 46 47 49 56 56 56 58 58 60 57
46 44 44 45 44 43 42 41 40 40 40 38 37 37 37 36 39 46 47 44 43 45 46 41 40 40 41 43 46 45 45 46 45 46 47 51 55 56 56 59 59 59 56
47 46 45 44 43 42 41 40 48 48 49 49 48 46 42 47 50 50 50 50 50 51 41 37 37 38 39 42 44 43 44 45 45 46 47 51 56 56 56 58 59 58 55
47 46 44 45 43 41 41 40 39 41 47 48 49 49 49 49 49 49 49 49 49 48 37 36 36 38 39 42 43 43 42 44 46 46 47 49 57 57 56 58 58 58 55
46 49 44 43 42 41 40 39 38 36 34 35 43 45 47 48 47 47 48 47 38 39 36 36 36 38 39 42 43 43 43 44 45 46 47 50 56 57 57 58 57 57 55
45 43 43 42 41 41 39 38 36 35 34 35 36 41 43 45 46 46 47 37 35 35 36 36 37 38 40 42 44 44 43 43 44 45 47 49 54 57 58 57 58 56 56
43 45 43 41 40 39 37 37 36 35 35 40 39 37 36 36 35 36 37 36 36 36 36 36 38 38 40 43 44 43 43 43 44 44 46 48 48 58 59 58 57 56 55
41 43 43 39 39 38 38 38 40 36 37 36 39 40 44 38 36 38 35 36 37 42 41 42 40 38 41 43 44 43 43 43 44 44 45 47 47 57 58 61 58 58 55
39 38 39 39 39 39 39 38 36 35 35 38 38 40 43 41 40 38 36 37 38 41 44 44 43 39 41 42 44 44 43 43 44 44 45 46 46 50 58 59 58 57 55
39 39 39 39 39 40 38 37 36 36 37 38 35 36 38 38 36 36 37 38 39 40 41 44 42 40 42 44 45 45 44 43 44 45 44 44 46 48 58 58 58 56 55
40 39 38 37 38 37 36 33 33 36 36 37 36 35 35 37 39 37 37 38 39 40 42 41 41 40 42 45 45 45 45 45 45 44 44 44 45 47 57 57 57 56 54
38 38 37 37 36 35 35 33 34 34 36 37 36 35 34 35 36 37 37 37 40 40 41 42 43 41 43 45 45 45 44 41 42 42 44 44 46 48 56 56 56 56 53
38 38 38 37 36 36 34 33 35 37 37 38 37 34 39 38 35 36 37 37 41 40 40 43 41 41 43 45 45 43 41 42 43 42 43 45 48 51 57 56 56 54 53

GFSGL_sfc_temp_012.txt.gz
Temp
53 53 52 50 49 48 48 47 47 45 45 46 46 46 45 45 44 42 41 41 40 40 41 40 40 41 40 40 41 41 41 41 39 43 48 51 50 49 50 50 51 50 51
54 52 51 51 50 48 48 47 46 46 45 46 46 45 45 45 44 42 41 43 41 40 41 40 41 46 41 41 41 41 42 43 41 41 46 47 48 50 50 49 50 52 53
53 52 51 50 49 49 48 47 46 45 45 45 45 45 45 45 44 42 42 42 41 40 41 40 42 41 40 41 41 41 42 44 43 43 44 47 47 48 48 50 49 49 54
52 51 49 49 50 50 49 47 46 46 45 44 45 45 45 44 44 43 43 41 40 42 43 42 42 42 41 42 42 43 44 43 46 45 45 46 47 50 49 48 48 50 51
51 50 50 50 50 49 47 46 47 45 46 45 44 44 44 44 47 42 42 41 41 41 42 43 44 46 54 53 49 45 44 44 45 45 45 46 47 47 47 49 48 50 52
51 50 51 49 49 48 47 46 45 44 44 43 43 43 43 47 53 55 53 44 43 42 41 42 43 49 47 53 54 54 52 47 46 45 46 46 48 49 50 49 49 49 48
52 51 50 50 49 48 47 46 44 43 41 41 42 42 41 41 52 55 56 46 43 41 40 40 42 48 48 44 48 52 52 54 54 50 47 47 49 51 51 49 50 51 51
51 50 50 49 49 48 46 46 42 41 41 40 40 41 40 43 53 55 55 45 42 41 40 40 40 41 42 46 48 48 49 50 51 51 50 50 52 53 53 53 53 53 54
51 50 50 50 48 46 46 44 41 40 39 40 41 40 39 40 51 53 52 42 41 40 41 41 41 42 50 53 49 47 47 49 54 55 55 54 55 58 56 55 52 52 52
51 50 51 50 48 46 45 43 39 40 41 41 41 40 44 40 49 52 50 43 39 40 41 42 49 51 54 54 49 47 46 47 49 50 49 51 55 57 58 54 55 54 54
52 50 49 49 48 47 44 42 41 40 40 40 41 39 39 40 39 50 52 44 41 41 41 43 47 51 52 53 53 47 48 51 49 47 48 49 53 55 55 56 56 55 57
49 48 47 47 50 46 44 41 40 39 39 38 38 38 38 38 46 49 52 52 50 42 41 45 43 50 52 52 51 52 54 50 46 46 47 48 50 54 55 56 57 58 60
48 46 45 47 46 45 43 40 39 38 38 37 38 37 37 39 39 48 50 51 51 45 44 46 51 51 50 47 49 52 51 46 45 45 45 46 48 50 56 57 58 58 58
45 45 46 45 44 45 45 44 42 39 37 38 37 37 36 36 38 38 39 39 45 45 46 42 46 48 48 47 45 47 47 46 45 45 45 47 49 50 55 56 56 55 55
45 45 46 47 45 44 44 44 44 41 42 39 38 37 36 35 39 44 44 42 41 43 46 40 38 37 38 39 41 44 46 45 44 45 45 46 48 51 55 57 56 55 54
45 46 46 46 45 44 43 41 48 47 49 49 47 42 41 46 48 50 50 50 49 50 41 36 35 35 36 38 39 42 44 44 44 45 46 47 48 51 55 57 56 56 53
46 46 46 45 44 42 42 40 37 42 49 49 49 50 49 48 49 49 49 48 49 47 36 35 34 35 36 37 40 42 43 44 45 45 45 46 49 52 55 56 56 56 54
43 46 43 43 43 41 41 39 39 37 37 37 43 45 47 48 47 47 47 46 37 38 35 34 35 35 36 37 40 42 44 43 44 45 45 46 48 50 55 56 56 55 53
43 42 43 41 41 41 39 38 38 38 37 36 35 41 42 45 46 46 46 36 34 34 35 35 35 36 36 37 41 42 44 43 44 44 45 45 47 47 56 57 56 55 54
43 46 43 40 39 37 37 37 37 37 37 37 36 38 36 37 34 35 36 35 34 34 35 35 37 37 37 38 42 42 43 43 43 44 44 45 46 48 52 57 56 54 54
42 43 43 38 37 37 38 37 38 38 37 36 35 38 43 37 35 37 36 35 35 36 37 38 40 41 38 39 40 42 43 43 43 44 44 45 46 45 47 57 57 57 55
39 39 38 37 37 38 37 38 36 35 36 35 36 39 43 38 37 39 35 35 36 37 38 39 39 42 38 39 41 42 43 43 44 44 44 44 45 46 47 53 57 57 55
38 38 37 37 38 40 37 37 36 36 36 35 37 35 35 34 37 37 36 36 37 37 38 38 40 39 39 40 42 43 43 43 44 44 43 43 44 45 46 52 57 55 54
39 38 38 37 37 36 36 35 35 36 35 34 35 35 33 34 35 38 36 36 36 37 38 39 39 38 39 40 42 44 44 45 45 43 44 43 42 44 46 51 57 55 55
37 37 37 36 36 35 35 34 34 33 33 35 36 36 33 34 35 36 35 36 36 41 38 39 39 39 39 40 42 44 43 41 42 42 43 43 42 44 46 53 57 56 54
37 37 36 36 36 35 34 33 32 36 36 37 37 35 37 38 37 35 35 36 39 41 40 39 40 40 40 41 43 42 41 42 42 42 42 43 45 46 49 54 56 55 53

GFSGL_sfc_temp_015.txt.gz
Temp
60 61 60 59 60 60 59 58 58 58 58 57 56 56 56 56 56 56 55 55 53 54 54 52 52 54 53 53 52 51 50 49 45 51 55 57 57 57 57 55 54 56 58
59 59 59 59 59 59 59 59 59 57 57 57 57 56 56 56 56 55 54 56 54 52 53 53 52 54 53 53 52 51 51 52 48 46 52 53 54 53 54 51 52 55 56
58 58 58 57 57 59 59 59 58 58 57 57 56 56 55 55 55 55 54 54 54 53 53 52 52 52 51 53 52 52 51 52 51 47 46 51 53 55 50 51 51 52 55
57 57 56 57 57 58 59 58 58 58 57 57 56 56 55 55 55 54 53 53 53 53 53 53 53 52 52 52 52 51 51 50 49 47 48 50 48 49 49 47 47 51 50
56 56 56 57 58 58 57 57 57 57 58 57 56 55 55 54 55 54 53 53 53 53 53 54 53 53 54 55 54 53 51 48 48 47 48 46 45 46 46 49 49 51 54
56 55 56 56 56 56 56 56 56 55 56 55 55 55 53 55 54 54 54 54 54 52 52 54 53 52 52 53 54 54 53 48 45 48 45 44 46 47 48 49 52 49 47
56 56 56 55 54 54 55 55 54 53 55 54 55 54 53 54 55 56 56 57 54 54 52 51 51 54 52 52 52 53 52 53 54 50 46 46 46 48 49 49 50 51 53
55 55 55 55 54 54 54 54 54 54 53 53 53 53 53 53 54 56 56 56 54 53 51 51 50 51 51 51 51 50 51 51 52 52 50 49 50 51 50 51 52 55 56
53 55 55 55 54 53 52 53 54 53 52 52 53 51 52 53 54 55 55 54 52 51 52 51 51 50 52 54 51 48 50 53 56 55 55 54 54 54 55 53 52 51 51
54 55 56 55 54 52 53 52 52 53 51 52 51 53 52 53 52 54 54 53 51 51 52 51 51 52 53 54 51 51 49 51 48 51 50 50 51 52 56 59 57 52 52
56 56 55 55 54 54 53 53 51 52 51 51 51 51 52 53 51 52 53 53 52 51 50 51 52 52 52 53 53 52 50 51 49 48 48 48 49 53 59 58 60 56 55
55 54 53 54 54 53 51 51 52 51 50 49 50 49 49 50 50 51 52 53 53 51 50 52 52 51 52 52 52 51 53 52 48 47 47 46 47 49 52 60 60 59 61
54 52 52 53 53 52 50 49 49 50 49 48 48 48 48 48 49 50 52 52 52 51 52 51 51 52 51 50 50 51 51 49 46 45 45 45 47 51 53 60 61 61 62
51 50 49 51 49 51 51 51 49 48 48 47 46 46 47 47 47 48 49 50 49 50 50 51 50 50 49 48 48 49 50 48 46 45 45 47 49 50 53 57 56 56 55
49 49 48 49 49 49 50 50 51 51 51 48 46 47 46 45 47 49 49 49 50 50 49 49 47 47 46 46 47 48 48 48 45 45 46 46 48 49 51 57 56 56 53
48 48 49 48 49 48 48 48 50 49 50 50 49 49 48 49 49 49 50 50 49 50 48 46 45 45 44 45 45 46 47 47 46 45 45 46 47 48 50 57 56 56 52
48 48 48 48 48 47 47 47 42 47 50 49 49 49 49 48 49 49 49 49 49 49 45 44 44 44 44 44 45 45 45 48 47 45 45 46 47 48 49 55 55 54 52
47 47 46 46 46 45 45 43 43 41 41 42 48 49 49 49 48 48 48 47 45 45 43 43 43 44 44 44 45 45 45 48 46 44 45 46 46 47 48 53 55 53 53
44 43 42 42 42 42 41 41 41 41 42 43 43 45 47 47 47 47 47 45 44 43 44 43 44 44 45 45 45 44 45 47 46 44 45 45 46 46 47 51 55 53 54
42 43 42 40 41 40 40 40 39 40 43 43 43 43 43 43 42 43 44 43 43 43 44 44 44 45 45 45 44 44 45 46 46 44 44 45 46 46 46 47 55 54 54
42 43 43 41 41 41 40 41 42 41 41 41 42 43 42 43 43 43 44 43 44 45 45 45 45 45 45 45 46 46 46 46 46 44 44 45 45 45 46 47 55 56 57
42 42 41 41 41 40 41 42 42 41 41 41 41 42 43 43 43 44 43 44 45 46 46 45 45 46 46 46 46 46 46 45 45 45 44 44 44 45 45 46 52 57 56
41 40 40 40 41 42 41 41 41 41 41 41 41 40 41 41 41 42 43 45 45 45 46 46 45 45 47 47 47 47 46 46 47 45 43 43 43 44 45 45 47 56 55
41 41 40 40 40 40 39 39 40 39 40 40 40 39 39 40 40 42 43 44 44 45 45 45 46 45 46 47 47 48 48 48 47 44 44 42 42 43 44 45 46 56 56
41 40 40 40 39 38 38 38 38 38 38 39 39 38 38 39 41 42 42 43 43 44 45 46 46 46 46 46 46 47 46 41 42 42 43 43 42 43 43 45 47 55 55
39 40 39 39 38 38 37 37 38 38 39 39 39 39 40 40 40 40 41 42 42 43 44 45 46 45 45 46 47 43 41 41 42 42 42 43 43 44 46 46 48 55 55

GFSGL_sfc_temp_018.txt.gz
Temp
71 71 69 70 71 72 71 71 69 69 68 66 65 65 64 64 65 64 64 64 62 62 62 60 60 61 60 60 60 59 58 57 53 56 60 62 62 62 63 64 64 62 62
69 69 68 69 70 70 70 71 70 68 67 67 66 65 65 64 65 64 63 64 62 60 61 60 59 61 59 59 59 58 58 58 56 52 57 58 59 61 61 59 59 60 58
68 68 67 67 67 68 70 70 70 69 68 67 66 64 64 64 64 64 64 63 63 62 61 60 59 59 58 59 59 58 57 58 57 55 54 57 58 59 59 56 55 55 56
66 66 65 66 66 67 69 70 70 70 67 67 66 65 64 64 64 63 63 62 62 62 61 60 60 59 58 58 57 57 58 56 54 53 53 54 55 57 54 49 47 51 51
64 64 63 66 66 66 67 68 69 69 68 67 66 65 64 64 64 62 61 61 61 61 61 61 60 59 57 56 56 56 55 52 50 52 50 52 52 53 48 48 47 48 53
63 63 63 63 64 64 65 67 67 67 67 66 65 64 62 63 60 58 60 60 60 59 59 60 60 58 57 56 55 55 55 52 50 49 51 49 52 48 48 47 47 46 45
60 61 63 63 62 63 64 65 65 64 66 64 65 64 62 62 59 57 56 61 60 60 60 59 58 60 57 57 56 55 55 55 55 54 51 49 47 48 48 47 48 47 47
58 61 62 62 62 62 63 63 64 64 64 64 64 64 62 62 57 57 57 60 60 60 59 58 57 57 57 56 55 55 55 57 58 58 53 50 50 50 50 49 49 49 51
57 58 58 62 60 60 61 62 63 64 63 63 64 62 61 61 56 57 57 60 59 58 59 58 57 56 55 55 53 53 54 57 60 58 55 55 56 54 52 50 51 49 51
55 55 58 61 60 60 60 61 63 64 62 63 62 63 60 61 55 56 57 60 58 57 58 58 54 54 54 54 54 54 53 55 55 53 53 55 52 51 53 57 56 54 52
57 56 58 58 59 61 60 62 62 62 62 61 60 61 61 62 59 55 56 59 58 57 57 56 57 55 53 53 54 54 53 54 53 54 51 49 49 48 50 53 62 56 53
54 54 57 58 58 60 59 61 61 60 59 59 58 59 60 61 58 54 55 55 57 55 55 57 57 54 53 53 53 53 52 53 53 50 48 46 46 47 51 57 58 58 59
53 55 57 57 57 58 58 58 60 58 57 57 57 56 56 58 58 54 54 54 54 54 56 55 53 52 52 53 53 52 52 53 49 46 46 45 47 50 55 56 59 60 62
53 55 54 56 56 59 60 60 59 58 56 56 56 55 56 55 56 56 56 55 53 53 53 54 53 52 51 51 53 54 55 52 48 46 46 47 49 52 54 56 56 58 58
56 52 52 56 57 57 58 59 58 59 58 57 56 57 54 53 55 55 55 55 55 54 52 54 51 52 52 52 52 52 53 52 49 48 46 47 48 50 50 53 56 57 54
51 48 47 55 54 53 55 56 54 55 53 53 54 56 56 54 53 51 50 50 50 50 50 48 49 50 50 50 50 50 52 50 50 46 47 46 47 49 49 51 56 57 53
50 47 44 51 54 51 50 49 47 49 50 50 51 51 51 50 50 50 50 50 50 49 48 49 49 49 49 49 50 50 50 50 52 47 46 46 47 48 49 49 55 55 54
51 49 41 45 49 50 54 51 52 50 48 48 49 50 49 49 49 49 49 48 49 48 48 48 48 49 50 49 49 50 50 50 51 48 45 45 46 47 47 48 51 53 53
46 46 47 48 51 50 50 51 51 50 47 47 47 47 48 48 48 48 48 49 49 49 49 48 49 50 50 50 50 49 47 49 50 48 45 45 46 46 46 47 47 53 53
46 46 46 45 45 46 47 47 45 46 44 44 44 43 45 46 47 48 49 49 49 49 49 48 49 50 50 50 50 47 47 49 50 48 45 45 45 46 45 46 46 54 55
44 45 45 46 44 43 44 43 44 45 43 42 43 46 47 47 47 48 49 49 49 50 50 50 51 50 50 50 49 50 49 49 50 48 45 45 45 44 45 46 47 51 57
41 42 43 42 42 42 43 44 43 43 44 44 45 46 45 47 48 48 49 50 50 51 52 51 51 51 51 50 50 50 50 49 50 49 47 44 44 44 45 45 46 49 56
41 41 42 42 43 43 43 44 45 45 46 47 47 47 46 47 47 48 48 49 50 50 51 51 51 50 52 52 52 51 49 49 49 49 47 43 43 43 44 43 45 46 54
42 42 43 44 44 45 45 45 46 45 46 46 45 45 45 46 46 46 47 48 48 49 50 51 51 50 51 52 52 52 52 51 50 47 45 43 42 43 44 44 45 47 51
42 42 42 43 42 43 43 44 44 44 44 45 44 44 44 43 44 44 45 46 47 49 49 49 48 50 51 51 51 52 47 42 45 43 44 43 42 43 43 43 45 47 49
43 43 43 43 42 42 42 41 42 43 43 43 44 43 43 43 43 44 44 45 46 48 47 48 48 49 49 50 49 43 41 41 43 42 42 43 42 43 44 45 46 46 48

GFSGL_sfc_temp_021.txt.gz
Temp
70 71 71 73 74 74 74 74 74 73 72 69 68 67 67 67 67 65 64 64 63 63 63 62 61 62 60 60 60 59 57 57 51 56 59 61 61 61 62 62 63 62 62
69 69 70 71 71 71 73 74 75 73 72 69 68 67 67 66 66 65 64 65 63 61 62 61 60 62 59 59 59 57 57 58 55 51 56 57 57 59 60 59 59 62 60
67 67 68 69 69 69 71 74 75 74 72 70 68 66 66 65 65 66 65 64 64 63 62 61 61 61 59 59 59 58 58 58 57 54 53 56 56 58 57 58 58 59 60
65 64 65 66 67 68 70 72 73 74 72 69 68 67 66 66 65 65 65 64 64 64 64 62 62 60 59 58 58 57 57 55 55 53 52 52 54 55 55 53 53 56 54
62 63 63 65 66 67 68 69 72 72 72 70 69 67 66 65 66 64 63 63 63 62 62 62 61 61 60 59 56 55 54 53 52 50 50 50 50 51 51 51 48 49 51
61 60 61 61 64 64 66 67 69 70 71 69 68 66 64 66 63 61 62 62 62 61 60 61 62 60 59 58 58 57 56 52 50 49 49 48 50 52 51 48 46 45 43
61 61 59 60 60 63 64 65 65 67 69 68 67 66 64 64 62 61 60 62 61 61 60 60 60 62 59 58 58 58 57 57 57 54 51 51 51 52 49 47 46 46 45
61 60 59 60 59 60 62 62 64 67 67 67 66 66 63 63 60 60 59 60 61 60 60 60 59 58 58 57 55 54 55 56 57 59 57 55 54 52 51 50 48 48 49
61 59 59 59 57 56 58 61 63 65 65 65 66 64 63 61 59 58 58 59 59 59 60 60 58 57 57 56 54 52 54 55 60 60 58 57 57 56 54 49 47 46 48
59 57 58 59 56 56 57 60 62 64 64 65 65 65 62 62 57 58 58 60 58 58 59 59 56 56 55 55 52 52 51 53 54 53 55 54 54 52 53 49 48 49 51
58 58 57 57 56 56 56 59 61 63 63 63 63 64 63 62 57 57 57 60 59 58 58 57 58 56 54 54 54 53 52 53 53 53 51 50 49 49 48 50 52 54 51
56 55 56 57 57 58 53 53 62 61 61 61 61 60 61 62 57 57 57 57 59 58 57 57 57 54 53 53 53 54 54 53 53 51 48 47 46 46 49 51 53 55 57
53 54 56 57 59 58 53 49 57 61 60 60 58 56 56 60 57 56 56 56 56 54 57 56 53 53 53 53 54 54 53 53 51 48 46 45 46 49 51 52 54 57 58
51 54 55 56 58 57 55 53 56 59 59 59 56 55 56 56 55 54 55 54 54 55 54 53 53 53 53 52 52 54 54 53 50 47 47 47 49 49 49 51 51 57 55
49 52 55 55 56 53 53 50 57 62 61 58 56 56 53 53 55 55 55 55 55 54 54 53 52 50 49 51 52 52 52 53 50 49 47 46 46 48 48 50 51 56 55
45 48 50 47 49 52 50 51 54 57 55 55 56 58 57 56 55 54 52 51 51 50 50 48 48 48 47 50 50 50 51 51 50 48 48 46 45 46 47 49 51 54 54
43 45 47 45 46 49 51 48 47 50 52 53 54 54 53 52 52 51 50 50 50 49 47 48 47 47 49 50 49 49 49 50 50 47 46 45 46 46 47 47 48 53 52
43 45 43 42 42 50 54 49 48 48 47 47 50 50 50 50 50 50 50 49 47 47 48 48 48 49 49 49 49 49 49 49 47 47 47 45 45 45 46 46 47 48 52
42 41 40 41 46 52 52 53 51 49 47 45 47 48 49 49 49 49 48 48 48 48 48 48 49 49 49 50 50 48 48 48 49 47 47 45 45 45 45 45 46 47 52
42 41 41 42 45 48 49 47 46 46 46 45 46 46 47 47 45 46 47 48 49 50 49 48 49 49 50 49 49 48 48 48 49 48 48 45 45 45 44 45 45 46 50
43 42 41 41 41 44 44 44 45 45 44 45 45 47 47 46 46 47 47 48 49 50 49 50 49 50 50 49 49 49 49 49 49 48 47 46 45 44 45 45 45 46 47
43 43 42 41 42 43 43 45 45 45 45 45 45 46 46 48 48 48 49 49 50 50 51 50 50 50 50 49 49 49 49 49 49 48 47 46 44 44 44 44 44 45 47
41 42 42 42 43 44 44 45 46 46 46 46 46 45 45 46 47 46 47 49 50 49 50 50 50 50 51 50 51 51 49 49 49 47 46 45 43 43 43 43 44 44 46
41 41 42 43 44 44 44 45 45 45 45 45 45 46 46 47 47 47 47 48 48 48 49 50 50 50 50 51 52 52 52 50 49 48 46 44 43 43 43 43 43 44 45
41 42 43 44 44 44 43 43 43 44 44 44 44 45 45 45 45 45 46 47 47 48 48 48 48 47 49 50 51 50 43 40 43 42 44 44 43 43 42 43 44 45 45
42 42 43 42 41 42 42 41 42 43 43 44 44 44 44 44 44 44 45 44 45 46 47 47 48 49 49 49 46 42 41 41 42 42 42 43 42 42 43 43 44 45 46

GFSGL_sfc_temp_024.txt.gz
Temp
62 64 64 64 64 66 66 63 66 67 66 63 63 62 61 60 60 57 55 54 53 51 52 51 51 51 49 49 48 47 46 45 42 45 48 50 49 50 52 52 54 52 54
59 60 62 63 63 64 63 63 63 65 67 65 63 62 62 61 60 58 56 57 54 51 51 51 51 56 49 49 47 47 46 47 44 44 45 47 47 49 50 51 54 58 55
59 57 59 61 61 62 63 63 65 66 68 66 63 61 61 60 59 58 58 56 54 52 51 51 51 51 48 47 47 47 47 51 46 44 45 45 46 48 50 49 51 53 56
61 59 54 57 58 59 61 62 64 67 68 65 62 61 61 60 60 59 58 54 54 53 53 52 52 51 49 48 49 47 48 45 44 43 43 44 46 47 48 47 48 51 51
60 60 54 54 57 58 57 60 63 65 67 66 62 61 60 60 61 58 57 55 52 51 52 54 52 55 60 56 51 46 45 43 42 41 43 44 47 45 45 47 46 49 51
59 59 58 53 56 55 55 54 59 61 63 64 62 60 59 62 62 61 58 54 53 52 50 51 53 59 58 60 59 58 53 43 42 41 46 46 47 47 48 49 47 45 43
58 59 59 58 55 56 55 52 52 55 61 62 62 60 58 58 63 62 60 53 51 50 50 50 53 58 55 51 57 58 56 57 57 50 48 46 47 46 47 47 47 46 46
57 57 59 56 55 56 54 50 50 50 59 60 61 59 57 57 62 62 61 51 50 50 50 50 49 50 51 51 48 47 47 48 50 53 50 48 49 51 51 50 48 47 48
55 57 56 55 54 55 53 49 49 49 54 60 60 58 56 56 61 61 58 50 50 49 51 51 50 49 56 57 48 45 45 47 56 57 56 56 56 57 56 49 46 45 44
55 54 55 54 53 52 53 50 49 50 50 60 59 59 58 54 60 60 56 51 47 49 49 50 56 51 57 56 46 44 42 44 45 47 48 50 53 51 54 50 47 44 45
55 54 53 52 51 52 53 52 49 49 49 57 58 58 58 56 56 58 57 53 51 49 49 48 50 57 56 55 54 45 45 48 48 46 45 47 48 49 49 50 49 48 47
53 53 51 50 52 54 52 49 50 48 48 54 57 55 57 55 56 57 58 57 56 50 48 48 49 55 55 54 52 53 54 53 46 43 45 46 46 46 49 49 50 51 52
51 50 49 49 50 52 53 47 49 48 47 52 55 53 52 53 54 57 58 58 57 50 49 51 53 53 53 52 52 54 54 45 43 41 44 44 45 49 50 50 51 52 55
48 47 48 47 48 51 54 52 49 48 47 51 54 51 51 50 51 52 53 52 55 52 53 48 50 50 52 50 49 48 47 45 43 42 47 44 48 48 48 49 48 50 54
47 46 45 46 46 49 51 50 49 49 50 53 54 53 49 48 50 53 51 49 47 51 48 45 44 43 43 43 43 44 44 44 42 42 47 43 45 47 47 49 49 51 52
46 44 44 43 43 46 47 47 51 50 51 54 56 56 55 55 54 54 53 53 52 53 46 42 42 41 42 43 41 41 42 44 42 43 46 43 44 45 45 47 49 51 52
43 43 43 42 43 43 44 45 44 47 51 55 55 55 55 53 53 52 51 50 51 50 41 41 41 42 42 42 41 41 40 41 43 44 45 42 44 45 45 45 46 48 52
43 44 42 42 42 42 44 44 44 45 45 47 52 52 52 52 51 50 50 49 45 45 42 41 41 42 41 41 41 41 41 41 43 46 45 44 44 44 44 44 45 45 50
42 41 40 40 40 42 44 44 44 44 44 44 45 48 50 50 50 50 49 44 41 41 41 42 42 43 42 42 42 42 42 44 45 45 45 44 44 44 44 44 44 46 47
41 41 39 39 42 43 42 42 43 42 42 43 42 43 45 45 42 43 44 43 42 42 42 42 43 46 43 42 41 41 42 45 43 43 45 43 44 44 43 44 44 44 46
40 40 41 42 42 43 42 41 42 41 41 41 42 44 46 42 42 42 41 42 42 42 42 44 45 46 43 42 42 42 43 43 43 42 43 42 43 43 44 44 44 45 45
40 39 40 40 41 41 41 42 42 42 42 41 42 45 47 44 42 43 42 43 44 45 45 46 46 47 44 45 47 43 42 43 43 42 45 43 42 43 44 43 44 44 45
40 39 39 40 41 42 41 42 42 42 42 42 42 42 43 42 41 41 43 44 45 44 45 47 47 46 48 48 49 44 43 42 43 42 44 42 42 42 43 42 43 43 44
40 39 38 38 39 39 39 40 41 42 42 42 42 42 41 41 42 43 44 44 45 45 46 46 45 43 47 46 45 44 42 41 42 42 42 43 42 43 42 42 43 43 44
40 40 40 40 40 40 40 41 41 42 42 42 42 41 40 42 42 43 43 43 44 44 45 44 44 44 47 47 44 43 41 40 40 41 41 43 42 42 42 42 43 44 44
40 40 40 40 39 39 39 38 39 41 41 42 41 41 42 41 41 42 42 42 39 41 43 44 43 44 47 44 43 41 41 41 41 42 42 42 42 42 42 42 43 43 44

GFSGL_sfc_temp_030.txt.gz
Temp
53 52 51 54 55 53 54 55 53 53 53 56 58 60 59 60 60 61 59 57 53 53 54 51 49 47 47 44 43 42 42 41 39 41 42 44 44 45 48 47 49 47 47
51 51 51 55 55 51 54 54 53 52 53 54 56 58 60 61 61 60 58 58 53 53 51 51 50 51 45 44 43 43 42 41 41 40 40 42 43 44 44 44 49 53 48
50 51 52 52 51 53 54 52 54 53 51 51 53 54 56 57 58 59 59 58 54 55 53 52 51 50 45 43 42 42 42 47 41 40 40 40 41 42 42 43 44 44 49
52 53 50 52 52 53 53 52 52 54 50 50 51 53 54 56 57 58 59 58 56 55 54 53 51 50 49 45 45 43 44 42 40 39 39 39 40 42 40 40 42 42 44
51 50 52 50 52 50 48 52 53 52 53 53 50 50 51 54 57 59 59 57 55 54 51 52 50 53 56 51 48 42 42 40 39 39 38 38 38 38 38 40 39 43 45
51 51 51 52 51 47 51 50 48 51 52 51 50 49 49 53 55 57 60 57 54 52 49 49 51 57 58 59 58 55 48 41 40 39 39 38 38 40 40 39 41 40 40
51 51 51 51 49 50 50 48 48 48 47 48 48 48 48 50 53 55 60 56 53 52 51 49 50 55 55 51 59 58 56 56 53 43 40 39 38 40 40 41 42 42 42
51 50 50 49 50 47 48 48 43 44 45 46 47 47 47 49 52 55 60 53 54 52 51 49 51 48 49 49 47 46 45 46 47 49 44 43 43 43 41 45 45 46 48
49 49 49 50 47 47 47 45 44 45 46 46 47 48 46 47 52 54 57 52 51 50 49 50 50 47 54 56 45 44 43 43 52 55 55 55 55 55 54 49 45 44 43
49 49 50 48 46 45 47 44 46 47 47 47 48 48 48 46 51 56 55 51 49 48 47 48 54 49 57 57 44 42 40 41 42 43 43 45 48 46 52 49 46 43 43
48 50 49 48 45 46 43 47 47 46 46 45 46 48 46 47 49 54 56 50 49 48 48 47 49 56 58 57 50 42 43 44 45 42 40 40 42 44 45 48 49 46 43
48 45 46 44 44 48 45 46 46 45 44 43 44 46 46 48 51 53 54 53 54 50 48 48 50 56 57 56 51 52 53 52 42 39 38 39 40 43 46 48 49 48 49
45 45 44 43 44 44 43 43 44 44 42 43 45 44 45 48 49 55 54 55 56 50 50 51 53 56 56 54 53 53 52 42 39 37 37 37 41 45 47 48 49 50 51
43 43 41 40 42 43 45 46 44 43 42 44 45 44 45 46 49 51 52 55 55 52 53 51 52 50 49 48 47 46 43 41 39 37 37 39 42 44 46 47 46 48 51
41 41 40 42 42 41 43 45 45 44 44 43 45 45 44 45 49 52 52 50 49 50 48 46 44 41 40 40 40 41 40 40 38 38 38 40 42 44 46 47 47 48 50
39 41 43 42 42 40 41 43 47 48 48 49 49 47 48 52 54 54 53 51 51 51 46 42 40 40 38 38 38 38 38 40 38 38 42 40 40 43 45 46 46 46 50
40 41 41 41 39 39 41 41 39 43 47 49 49 49 50 51 53 51 51 51 51 50 43 41 40 39 38 38 38 38 37 38 38 40 43 39 41 44 44 44 45 46 51
40 43 41 39 39 40 41 41 41 40 39 44 48 48 49 51 51 51 51 51 45 45 43 42 40 38 38 37 38 38 37 38 39 40 43 39 40 43 43 43 44 44 48
40 40 40 40 40 41 41 41 41 40 43 43 44 47 50 51 51 51 51 45 43 42 43 41 39 40 39 38 39 38 39 39 39 39 41 38 40 42 42 43 44 45 46
39 40 41 40 40 40 39 39 40 43 43 43 44 45 47 47 44 42 43 44 43 42 42 39 40 40 40 39 39 38 38 39 38 38 38 38 39 42 42 42 43 43 44
38 40 42 41 41 41 41 42 43 43 42 42 43 46 48 43 42 42 42 42 43 43 42 40 40 41 40 39 39 39 38 38 38 38 38 38 39 41 42 43 43 44 45
37 40 40 40 40 40 40 41 41 41 41 40 41 44 46 43 42 42 42 43 43 44 43 42 41 41 40 40 40 39 38 38 38 38 38 38 38 40 42 42 42 43 44
37 38 40 40 40 40 39 40 40 40 40 41 41 41 42 41 41 42 42 43 43 42 41 42 41 40 41 41 41 41 39 38 39 39 38 37 38 40 41 41 42 42 43
38 37 38 39 39 39 39 39 40 41 40 40 41 41 41 41 42 42 42 42 42 41 40 41 42 42 42 40 41 42 43 43 39 39 38 38 37 40 41 41 42 42 43
38 37 37 37 37 37 38 38 39 38 39 40 40 40 41 41 41 41 42 40 41 41 41 42 44 44 43 42 43 41 41 40 39 40 38 39 42 43 41 42 42 43 43
37 37 36 37 37 37 37 37 37 38 38 39 39 39 40 39 40 41 40 40 40 41 42 43 43 43 43 42 41 41 41 41 41 42 40 40 41 41 41 42 42 42 43

GFSGL_sfc_temp_033.txt.gz
Temp
50 49 48 49 52 50 51 52 53 52 50 50 51 51 52 53 54 54 56 58 58 57 56 53 51 50 49 47 43 42 42 42 41 41 40 42 42 44 47 46 48 46 46
50 48 49 51 52 49 51 51 53 52 52 52 51 51 51 52 52 53 54 57 57 55 55 53 52 50 49 47 46 44 44 41 41 40 40 40 41 42 43 44 48 51 47
50 47 47 47 47 48 49 52 52 52 51 51 52 50 51 51 50 51 53 55 56 56 56 53 53 49 48 46 46 44 42 46 40 40 39 39 40 40 41 42 42 43 48
51 48 46 46 47 48 49 50 51 50 51 51 50 50 51 51 52 52 52 53 55 55 55 54 55 50 50 46 47 45 43 41 38 38 38 38 39 40 39 39 40 41 43
49 48 48 49 48 45 46 48 48 51 51 50 49 48 49 50 52 51 51 51 53 53 54 54 54 54 57 52 49 44 42 40 38 37 37 37 37 37 37 39 38 41 43
49 48 48 49 49 47 47 46 46 47 47 48 46 48 48 51 54 55 54 51 53 53 50 51 54 56 57 58 58 54 49 43 39 38 37 38 38 38 39 38 40 36 37
49 49 50 51 49 48 47 46 45 43 45 45 44 45 46 47 53 54 55 51 52 53 52 50 53 55 56 54 59 58 56 56 51 44 39 39 38 39 39 38 38 39 40
48 49 50 50 49 48 46 45 42 41 42 43 44 44 45 47 53 54 54 51 51 52 54 52 52 53 51 51 51 47 46 48 50 51 43 42 41 43 41 44 43 43 44
47 47 48 49 48 46 45 43 41 41 42 42 44 44 44 45 52 53 52 48 49 49 49 51 52 51 54 56 48 44 42 43 53 55 53 53 55 55 53 47 43 41 40
46 47 48 49 46 46 46 42 42 40 42 44 45 46 48 46 50 52 51 48 47 46 46 47 54 52 57 57 46 43 40 40 42 42 43 45 48 44 52 47 44 40 42
46 47 47 47 47 47 46 43 39 41 43 42 43 45 45 46 46 51 51 48 46 44 44 45 51 55 58 55 50 43 43 42 45 41 40 39 40 41 42 44 46 44 42
42 43 44 45 45 47 43 38 41 41 40 40 43 43 45 46 49 49 51 51 48 45 46 49 51 56 56 54 48 53 53 50 41 39 38 37 38 39 43 47 48 47 47
39 39 40 43 43 43 39 39 40 40 40 42 43 42 43 47 46 50 52 51 50 47 48 51 55 56 55 52 54 54 51 41 39 37 36 36 37 42 45 47 48 49 50
38 39 39 41 40 39 41 42 41 41 41 43 42 41 43 45 46 47 50 49 51 48 51 53 54 52 51 50 47 45 41 40 39 37 36 36 39 42 45 46 45 47 50
38 39 40 41 39 39 42 42 40 41 44 42 42 43 42 43 46 49 49 47 45 48 49 47 45 44 42 41 39 39 39 39 37 36 36 37 40 44 44 46 46 48 50
38 39 40 39 42 42 41 39 45 47 48 48 49 47 47 48 49 51 50 49 51 52 46 43 42 42 40 38 37 37 37 40 37 37 38 37 40 42 44 45 46 47 49
37 39 40 40 38 38 40 39 38 43 47 47 47 50 49 48 50 50 50 50 52 50 43 42 41 40 39 39 37 37 36 36 37 38 38 37 42 43 43 44 45 47 50
39 41 39 39 39 39 39 39 41 40 39 40 48 48 48 50 49 49 50 50 45 46 43 42 40 40 40 39 37 37 36 37 37 38 37 38 41 42 42 43 44 45 49
39 39 39 39 39 40 40 40 40 40 40 42 44 47 49 49 50 51 50 45 42 42 42 42 41 41 40 39 37 38 38 38 37 37 37 39 41 42 42 42 43 46 49
38 41 42 41 41 40 40 39 39 39 41 43 43 43 46 47 43 42 44 44 42 42 42 41 41 41 41 39 38 37 37 37 36 36 36 39 41 42 41 42 43 44 47
37 40 42 41 40 41 41 40 42 42 42 43 44 46 47 43 42 42 42 43 43 42 42 41 41 41 40 38 38 38 37 36 36 36 36 37 41 41 42 43 43 44 45
38 39 40 39 39 40 40 42 41 41 41 40 41 43 45 42 42 42 42 43 43 43 43 42 42 42 40 39 39 38 37 37 37 36 36 36 38 41 42 42 43 43 44
38 38 39 38 39 40 39 40 40 40 40 40 40 41 42 41 41 41 42 42 43 43 43 42 42 40 41 40 40 39 38 37 37 37 36 36 37 39 41 42 42 42 43
37 37 37 37 39 38 38 38 39 40 40 40 41 41 41 41 41 41 42 42 42 42 42 43 42 40 40 40 41 41 41 38 38 37 37 36 37 40 41 42 42 43 43
37 36 36 36 36 36 37 38 38 39 39 40 40 40 41 41 41 41 41 40 41 41 41 42 41 40 40 41 42 41 41 40 38 39 37 38 42 41 41 42 42 42 43
37 37 36 36 36 36 36 36 36 37 38 39 39 39 40 39 40 41 40 41 40 41 40 43 42 41 42 42 42 41 41 42 41 41 38 40 39 40 41 41 42 42 42

GFSGL_sfc_temp_036.txt.gz
Temp
50 51 50 50 49 48 46 47 47 48 47 48 50 50 49 49 49 48 48 49 50 52 53 53 54 55 52 50 49 45 44 43 48 42 42 42 42 43 47 47 49 48 48
51 51 52 52 51 47 46 47 47 46 48 48 49 49 49 50 49 48 47 49 48 50 52 51 53 55 52 50 49 46 47 43 43 42 41 40 41 42 44 45 47 51 47
52 52 51 50 49 48 47 48 48 48 49 47 48 47 48 48 48 48 48 49 49 49 51 50 52 52 48 47 48 47 46 47 42 41 40 40 40 40 41 41 43 44 48
51 51 49 49 48 48 48 48 48 49 47 47 47 48 48 48 49 48 49 49 48 50 50 51 52 52 49 48 48 49 46 44 40 40 39 39 39 39 40 40 40 41 44
49 49 49 50 49 50 47 47 48 48 48 47 47 47 47 48 50 47 48 48 47 47 48 51 51 51 55 53 50 49 46 45 41 41 37 37 37 37 38 39 39 41 41
47 47 49 49 49 48 46 46 46 47 47 45 44 45 46 49 54 55 53 50 49 48 47 49 52 55 56 55 55 56 51 45 44 42 37 38 37 38 38 39 38 38 37
45 46 47 48 47 48 48 48 46 45 44 43 42 43 43 44 52 54 54 51 52 52 50 48 51 54 53 51 55 58 56 56 54 46 41 40 39 39 39 38 38 38 39
43 44 45 46 47 48 48 47 44 44 42 41 41 42 42 44 52 53 54 51 50 51 50 48 50 50 52 49 49 54 50 52 52 49 45 43 43 42 42 42 41 40 42
41 42 43 45 45 46 45 44 43 42 40 40 42 41 41 43 50 52 51 49 48 48 47 48 51 49 52 55 49 49 45 44 55 54 51 52 53 52 46 42 42 39 40
42 42 42 43 42 43 44 45 45 45 44 43 42 42 45 44 49 51 51 47 46 47 46 48 52 50 53 54 49 48 44 40 43 43 43 48 51 46 52 46 42 40 40
42 40 40 40 41 41 43 44 45 42 42 38 40 42 41 43 43 49 51 47 46 46 45 46 49 52 52 52 54 49 48 42 47 40 40 40 40 40 40 41 43 42 41
41 40 39 39 41 42 41 41 40 38 35 37 38 38 42 46 48 49 51 51 50 46 46 46 48 51 51 53 52 53 52 47 40 38 38 38 37 38 40 42 44 45 45
40 39 40 40 39 42 38 39 37 37 36 37 38 39 41 45 45 49 50 50 51 46 45 46 49 52 54 53 54 54 49 40 38 37 36 36 37 39 41 45 47 47 48
39 38 38 39 40 42 39 39 37 37 36 38 38 39 42 43 44 45 46 47 49 46 47 47 51 51 51 52 50 44 40 39 38 36 36 36 37 39 43 46 45 46 48
39 38 37 40 40 40 40 40 41 42 40 38 39 42 41 42 44 46 47 45 44 46 48 49 46 44 42 41 39 38 39 39 37 35 36 36 39 42 44 46 46 47 49
37 37 37 38 40 40 39 39 45 46 47 47 48 47 46 48 48 49 49 48 49 51 47 44 42 42 39 38 37 38 38 40 36 36 37 37 40 42 43 45 46 49 48
37 38 38 39 38 37 38 38 37 40 46 47 48 47 48 48 47 49 49 50 50 48 43 41 40 39 38 39 38 39 37 36 37 37 36 39 42 43 43 44 46 49 49
38 40 38 38 39 38 38 38 39 38 38 39 44 48 47 48 49 49 49 48 44 44 42 40 39 40 40 39 39 38 37 38 37 36 37 41 41 42 42 43 44 48 49
38 38 40 40 41 40 39 39 39 40 39 39 44 46 49 49 49 49 48 44 42 41 41 40 41 41 40 40 39 39 39 37 36 36 40 40 41 41 42 43 44 49 49
38 41 41 39 40 41 40 39 38 38 39 42 43 44 44 44 42 42 43 43 42 41 41 40 41 41 41 40 39 39 37 36 35 37 39 40 41 41 41 42 44 47 48
37 38 41 38 39 41 42 40 41 42 42 42 43 44 46 42 41 42 42 42 41 41 41 41 41 41 40 40 40 38 36 35 35 36 39 39 40 41 42 43 44 46 48
37 37 38 38 39 39 40 41 41 41 41 41 41 43 45 42 42 42 41 41 42 42 43 43 42 41 41 41 40 38 36 35 35 35 38 39 40 41 42 43 43 44 46
37 36 36 37 38 39 38 39 39 40 39 40 41 41 41 41 41 41 41 42 42 42 43 43 42 41 42 41 40 39 37 35 35 36 35 37 40 41 42 42 42 43 44
37 36 36 36 37 38 38 38 39 39 39 41 41 41 41 41 40 41 41 42 42 42 43 42 42 41 41 41 40 39 38 37 36 36 36 37 40 41 42 42 42 43 43
37 36 36 35 35 36 36 37 38 39 39 40 40 40 40 40 40 40 41 41 42 41 41 41 41 41 41 41 41 41 40 40 38 39 37 40 40 41 42 41 42 43 43
36 36 35 35 35 35 35 35 36 37 38 39 40 40 40 39 39 40 41 41 41 41 41 41 41 42 42 42 42 41 42 41 39 41 41 41 40 41 41 41 41 41 42

GFSGL_sfc_temp_042.txt.gz
Temp
62 62 61 61 62 63 62 62 62 62 63 62 62 62 63 63 65 64 64 65 64 64 65 64 64 65 64 66 66 64 61 60 52 63 70 74 71 69 70 67 70 69 67
60 60 59 60 60 60 60 61 62 61 62 62 61 61 62 63 63 63 62 64 63 62 63 63 62 65 63 64 64 63 61 62 53 52 64 69 67 68 69 65 67 69 68
58 57 56 56 56 56 57 58 59 59 60 61 60 59 60 61 61 62 63 62 63 63 63 63 62 62 62 63 63 63 62 62 58 51 53 60 66 68 66 66 66 66 68
55 54 53 54 54 54 55 56 56 58 57 58 59 58 58 59 60 61 61 61 61 61 62 63 62 61 61 61 62 62 62 57 56 50 48 50 62 63 63 62 60 63 64
54 53 53 54 54 53 52 53 55 55 56 56 56 57 57 57 58 55 56 59 60 60 61 62 61 61 60 60 61 61 60 57 53 52 46 50 56 59 57 61 61 62 63
52 51 52 50 51 50 50 51 51 51 52 53 52 53 53 56 56 56 56 58 59 59 58 60 61 59 59 58 58 59 59 54 53 51 47 51 56 59 58 61 61 59 57
48 49 48 48 49 47 46 47 48 48 50 50 52 51 49 53 55 54 54 55 57 59 59 59 59 61 59 59 58 58 58 59 57 56 48 52 52 59 60 60 59 59 59
47 48 48 49 46 45 43 43 45 45 47 48 50 51 50 52 53 53 53 54 55 57 58 58 58 58 59 58 54 52 56 59 56 55 52 54 55 60 59 62 60 61 63
45 47 47 46 43 43 41 41 41 43 43 46 48 49 49 51 53 52 52 53 52 55 57 57 57 56 57 56 52 51 53 56 60 57 56 54 55 56 59 59 59 57 56
46 45 46 44 43 41 40 40 41 42 43 43 43 47 48 48 51 52 52 52 52 54 56 56 54 54 55 54 52 51 50 54 56 56 52 53 54 54 59 62 60 56 56
47 46 45 43 42 41 41 40 41 41 41 43 44 47 48 50 50 52 51 52 52 52 52 53 55 53 53 53 54 53 53 56 53 50 50 50 52 54 57 61 63 59 56
46 43 42 41 42 41 40 40 42 45 44 43 44 45 48 50 51 51 51 51 51 50 50 52 53 52 53 53 54 54 55 55 49 47 47 48 52 55 57 59 61 60 60
42 42 41 41 41 41 40 40 41 44 43 43 44 44 45 50 51 51 50 50 51 48 49 51 52 52 52 53 54 54 54 50 47 47 47 51 55 59 60 60 60 58 57
40 41 40 39 40 41 41 41 41 42 40 43 44 43 45 46 47 48 48 45 48 48 49 48 50 51 52 53 52 51 50 48 48 48 51 56 57 58 58 58 54 52 46
40 40 40 39 39 40 41 40 40 43 43 42 43 43 41 43 46 47 47 45 44 46 46 46 44 45 45 45 45 46 46 47 48 51 53 55 54 55 56 55 50 46 47
39 39 38 39 39 39 40 40 43 44 45 46 47 46 47 47 47 47 47 47 48 48 44 44 44 43 42 42 43 44 46 48 50 53 54 54 53 53 50 46 47 47 51
39 38 39 39 38 38 38 38 38 42 45 45 46 46 47 48 49 48 48 48 48 48 42 42 41 41 41 43 45 46 47 48 50 51 51 52 50 47 45 45 47 51 53
39 41 38 38 38 38 40 42 42 39 38 39 47 47 48 48 48 48 48 46 42 43 41 40 40 41 43 45 46 45 45 46 49 49 47 45 44 44 44 47 51 53 53
38 38 38 38 38 39 40 41 41 40 41 42 43 45 47 48 48 48 49 46 44 43 44 43 45 46 46 46 45 45 47 47 47 43 42 42 42 44 45 52 54 53 54
38 40 40 38 37 37 40 42 43 42 41 41 41 43 46 47 45 46 48 48 47 46 45 45 45 46 45 45 45 45 44 44 41 40 40 41 43 44 47 54 56 54 55
37 38 40 37 37 37 40 41 41 41 41 41 42 45 47 44 43 44 45 45 45 44 44 45 44 44 45 45 44 44 45 42 39 39 40 41 43 43 50 54 54 54 54
37 37 37 37 37 38 39 41 41 41 41 40 41 43 44 43 41 40 41 41 42 43 45 45 44 43 45 45 46 44 43 39 39 39 40 41 43 44 49 54 54 54 54
37 37 36 37 38 38 38 39 40 40 40 40 40 40 41 39 39 39 40 41 43 44 45 45 44 46 47 48 48 46 42 40 40 40 40 41 42 43 46 49 51 52 53
37 36 36 36 37 37 37 38 39 39 39 39 38 39 38 39 39 40 41 42 43 44 45 46 47 46 47 46 46 46 43 44 42 41 41 41 41 42 43 46 50 52 53
37 36 36 36 36 36 36 36 36 38 39 38 38 38 38 38 39 41 41 42 43 43 45 47 46 46 46 46 45 44 41 40 42 41 42 41 41 41 42 44 47 49 49
37 36 36 36 36 36 36 36 36 36 37 37 38 38 38 39 40 41 42 42 42 42 44 45 45 45 45 45 43 40 41 41 42 41 42 41 41 40 42 43 45 47 48

GFSGL_sfc_temp_045.txt.gz
Temp
64 63 62 62 62 62 61 61 62 62 63 62 63 62 62 62 63 63 64 64 63 63 64 64 64 65 63 64 64 64 62 60 55 60 65 65 68 68 70 68 68 65 64
62 61 60 60 60 59 58 59 59 59 60 60 61 61 62 62 62 62 62 63 62 61 62 63 63 65 62 63 62 62 62 62 58 55 61 61 59 67 68 64 66 70 66
61 59 58 58 57 57 58 58 58 58 57 57 58 57 58 59 60 61 61 62 61 62 62 62 62 63 62 62 61 61 62 63 60 57 56 61 60 62 64 65 63 65 68
58 57 56 56 57 57 56 56 55 55 53 54 55 55 56 57 58 59 58 57 59 61 62 62 62 62 62 61 61 61 62 59 57 54 55 56 58 58 62 60 59 62 62
56 55 54 55 55 54 51 51 52 53 52 52 52 54 54 55 57 56 56 55 54 56 59 62 61 62 63 62 60 59 59 58 54 53 50 53 54 54 56 57 58 60 61
53 52 53 52 50 49 49 50 50 49 49 49 51 51 51 54 54 54 54 53 53 53 51 52 61 61 61 61 60 60 58 55 54 51 51 49 53 54 56 55 55 53 54
51 50 49 49 48 48 48 48 46 45 46 45 46 48 49 51 53 53 53 52 52 52 47 46 57 62 60 60 60 60 59 59 59 56 51 51 53 56 57 54 55 53 56
49 48 47 47 47 47 47 44 43 43 42 41 40 44 49 50 52 52 52 50 50 51 52 54 56 57 59 59 58 57 57 57 57 59 56 57 58 59 58 59 57 56 56
45 47 48 48 46 45 43 41 42 41 41 41 44 46 46 49 51 52 50 48 48 49 50 53 54 56 58 58 55 53 54 53 57 58 59 59 59 58 58 53 52 51 50
46 46 47 46 44 43 42 41 41 41 41 41 42 46 48 47 50 50 50 48 46 48 50 52 55 55 57 57 54 53 49 50 51 53 55 56 57 56 57 54 54 51 52
47 47 45 44 44 44 42 41 41 40 41 44 45 46 47 49 48 50 50 48 48 48 49 51 54 56 56 56 55 51 51 53 53 51 53 54 53 51 51 53 55 55 52
45 43 43 43 44 44 41 41 41 40 40 43 44 46 48 49 50 51 51 52 51 48 49 52 54 54 55 55 54 54 54 54 50 51 49 49 49 48 51 53 56 57 58
42 42 42 43 43 43 42 40 40 40 39 41 44 43 45 48 48 50 51 51 52 49 50 51 52 53 54 53 53 54 54 50 49 48 47 47 49 51 54 55 57 57 57
41 42 42 41 42 42 41 40 39 39 39 39 40 41 44 46 46 47 48 47 50 50 50 48 50 51 52 51 51 52 51 51 50 49 47 48 50 51 51 53 52 52 50
41 41 41 41 40 40 40 40 40 42 42 40 41 43 41 41 44 47 47 47 47 47 46 46 46 46 46 47 48 50 50 50 49 48 47 47 47 49 52 53 52 50 47
40 40 40 39 39 39 38 39 44 47 47 46 46 45 44 46 46 46 46 47 48 49 44 42 42 41 42 45 45 46 46 48 47 47 47 48 48 49 50 51 50 48 46
40 40 39 38 38 37 38 38 40 43 47 49 47 47 48 48 47 47 48 48 48 47 43 42 41 41 41 42 42 43 42 44 46 46 47 48 49 51 50 47 46 46 47
42 41 38 38 38 37 38 39 42 41 40 42 47 47 48 48 47 46 45 44 40 42 41 40 40 41 41 41 42 42 43 44 45 48 49 49 48 47 45 45 46 47 50
41 38 38 38 38 38 39 43 42 42 41 42 43 45 47 48 47 47 46 42 40 40 41 41 42 42 42 42 43 44 45 45 45 44 44 44 44 44 44 46 48 51 51
40 40 40 38 37 38 40 41 41 41 41 41 41 42 44 45 43 44 45 44 43 43 43 43 43 44 44 44 44 44 43 41 41 41 41 42 43 44 45 49 52 51 50
38 37 40 38 37 38 40 40 41 40 40 40 40 43 44 42 41 42 42 43 42 42 42 42 43 42 43 43 43 42 40 40 39 40 40 41 43 44 47 52 53 51 50
38 37 37 37 37 38 39 40 40 40 39 39 39 40 41 39 40 40 41 41 42 43 43 43 42 42 43 43 43 41 40 39 39 40 41 42 43 46 50 52 52 51 50
38 37 37 37 36 38 38 39 39 39 38 38 38 38 38 39 40 40 40 42 42 43 44 44 43 43 44 45 44 42 40 39 40 41 40 41 43 49 51 52 52 51 49
38 37 36 36 37 35 36 36 38 38 37 37 37 37 38 39 40 40 40 42 43 44 45 44 43 43 43 43 44 42 41 41 41 41 41 42 43 47 49 51 51 51 50
39 37 36 36 36 36 36 36 36 37 37 37 37 38 39 39 39 40 40 42 43 44 43 43 43 43 42 42 42 42 40 40 40 41 42 43 43 45 48 50 51 51 51
38 38 36 36 36 36 36 36 36 36 36 38 38 38 39 39 39 40 41 43 43 43 42 42 44 44 43 42 41 40 40 40 41 41 42 42 42 44 46 48 49 50 50

GFSGL_sfc_temp_048.txt.gz
Temp
55 54 53 53 54 54 54 53 54 54 54 54 54 54 54 55 56 56 56 56 54 56 58 56 56 58 54 53 55 56 54 53 48 48 52 54 56 55 60 63 62 61 62
54 53 53 54 53 52 53 54 54 53 53 53 53 52 52 52 53 54 54 55 54 55 57 57 56 60 55 53 55 51 56 53 47 45 48 50 52 54 55 57 60 63 58
53 52 52 51 51 51 51 51 52 50 50 50 51 51 50 50 51 52 53 55 54 55 56 55 57 56 55 56 54 50 52 56 49 46 46 49 50 53 53 56 57 57 62
52 51 49 49 50 50 49 49 49 51 50 50 50 50 49 49 50 51 52 52 52 53 55 54 54 55 54 56 52 48 49 47 49 50 49 48 47 49 52 53 53 55 54
50 48 48 49 48 48 48 49 49 49 49 49 49 49 48 48 50 49 51 51 50 50 52 53 52 54 56 58 55 49 51 47 48 48 44 44 44 45 46 52 52 53 52
49 48 48 47 47 46 48 48 48 48 48 47 46 46 44 47 48 50 50 48 49 48 48 49 50 54 52 54 56 55 50 45 44 47 47 47 44 45 46 50 51 48 47
47 46 46 47 46 47 47 47 46 45 46 44 44 43 42 44 47 48 50 48 47 47 46 46 49 52 52 50 51 58 58 60 58 48 48 47 45 47 49 46 51 50 49
44 44 45 47 46 46 45 44 44 44 42 42 42 42 42 43 47 50 51 48 46 46 47 47 46 45 47 47 46 48 49 50 51 54 50 47 48 49 49 54 54 53 53
44 44 46 46 44 44 42 42 42 42 41 41 41 41 41 43 47 49 49 46 45 45 47 48 48 48 49 50 49 48 47 47 57 58 58 58 58 58 55 49 49 49 49
43 45 46 45 43 42 42 41 42 42 42 42 41 42 43 41 47 49 49 45 43 43 45 46 51 49 52 53 46 45 43 42 45 46 46 51 55 53 58 51 52 49 47
44 45 44 44 43 43 42 42 41 41 41 41 41 43 42 44 44 49 50 45 43 43 44 44 46 51 52 54 55 45 45 46 48 44 44 44 46 49 52 54 52 51 49
45 43 43 43 43 43 41 42 41 40 39 39 40 40 42 45 49 50 51 51 50 44 43 46 47 52 53 53 53 55 56 55 43 42 43 44 44 45 49 52 50 52 54
43 42 42 43 43 43 41 40 39 39 39 39 39 39 40 44 45 50 51 51 51 48 48 48 51 52 53 52 54 55 54 45 43 43 43 44 46 46 48 51 52 52 52
41 41 42 41 42 41 41 40 39 38 38 39 39 39 39 41 42 45 46 45 49 48 49 48 49 49 51 48 49 49 47 45 45 44 45 45 46 47 48 51 49 49 48
41 41 41 41 39 38 39 39 39 41 44 44 42 41 40 39 41 44 42 43 42 44 46 44 43 40 41 42 42 43 44 47 46 46 47 45 46 48 49 50 49 48 47
39 40 39 39 38 38 38 38 42 46 48 48 49 47 45 47 47 48 51 45 48 49 44 40 41 42 40 40 41 43 42 47 46 45 45 45 47 47 47 48 47 47 46
39 39 38 38 37 37 37 37 38 43 47 47 48 48 48 47 47 46 50 46 47 48 43 42 41 42 42 42 43 42 44 44 44 44 47 47 48 47 46 45 46 47 45
40 41 38 37 37 37 37 40 42 41 40 41 46 47 47 47 46 45 44 45 42 44 41 40 40 41 41 41 43 44 43 44 45 46 45 45 45 45 44 45 45 46 45
40 37 38 38 38 39 40 41 41 41 40 41 42 44 46 46 46 45 44 40 39 38 39 39 39 40 40 41 42 42 43 43 43 43 43 44 45 45 44 45 45 46 47
39 40 40 38 37 38 39 40 40 40 39 39 39 40 42 42 39 39 40 40 39 38 39 39 39 40 41 41 41 41 40 40 40 41 41 41 42 43 44 45 46 46 47
38 37 40 37 37 37 39 39 39 38 38 38 38 41 43 40 39 39 39 39 39 39 39 39 40 40 41 41 41 40 40 40 39 40 40 41 42 43 45 46 47 49 49
38 37 37 37 37 37 38 39 38 37 37 37 37 39 42 40 39 39 39 40 41 41 41 41 39 40 40 40 40 39 38 38 39 40 41 42 43 44 45 48 49 49 49
37 36 36 37 37 38 37 37 37 37 37 37 37 38 39 39 39 39 40 41 41 41 41 41 40 40 41 41 41 40 38 38 40 40 41 42 43 45 49 49 49 48 48
37 36 36 36 36 36 36 36 36 37 37 37 38 38 38 39 39 39 41 41 40 41 41 41 41 40 40 40 41 41 41 41 41 41 42 43 46 48 50 49 49 49 49
37 36 36 36 36 35 36 36 36 36 37 38 38 38 38 39 39 40 41 40 40 41 41 41 41 41 40 39 40 41 40 40 41 41 43 45 47 49 48 49 50 49 49
37 37 36 36 36 35 35 35 36 37 37 38 38 38 38 39 40 40 40 40 40 39 38 38 38 39 40 40 40 40 40 40 41 41 43 46 47 48 48 48 49 49 48

GFSGL_sfc_temp_051.txt.gz
Temp
50 49 48 47 48 48 47 47 49 49 47 48 49 49 49 50 50 49 49 50 51 53 53 52 51 53 53 53 48 51 51 48 48 47 47 50 49 53 57 56 58 56 59
49 48 47 47 46 45 45 48 46 48 48 49 49 48 48 49 49 48 47 48 48 50 51 52 52 56 52 50 50 51 53 50 47 43 46 47 48 50 52 54 57 60 55
48 46 45 44 44 46 43 46 48 48 48 48 48 47 47 48 48 48 47 47 48 49 51 51 52 53 51 51 45 46 47 52 48 43 44 46 47 48 49 54 53 52 58
47 45 43 43 44 42 46 46 47 47 47 48 49 48 47 48 48 47 47 46 46 48 50 51 51 51 50 49 47 45 47 46 43 43 43 44 45 46 47 49 51 52 51
44 43 43 43 45 46 45 46 47 49 49 49 48 47 47 47 48 47 46 46 45 46 48 50 49 51 54 54 52 48 47 44 43 42 42 43 43 45 44 46 47 51 52
42 44 43 44 45 44 45 45 47 47 47 46 46 46 45 46 48 48 48 45 45 44 43 45 48 51 51 54 54 55 50 44 45 43 42 42 42 43 44 45 47 48 47
42 43 43 44 44 44 46 46 45 45 45 44 44 44 43 44 48 49 48 46 45 44 44 44 46 50 49 50 52 55 54 51 52 45 45 43 42 44 44 44 47 48 49
40 41 42 43 43 44 45 44 44 44 42 41 42 43 43 44 47 47 49 46 45 45 44 45 44 46 47 46 45 44 45 46 47 49 48 47 46 47 47 48 47 47 51
40 40 42 43 43 43 42 42 42 41 41 41 42 42 42 43 46 47 47 44 42 43 44 46 46 46 48 51 46 42 42 45 53 52 54 55 57 55 51 47 45 47 44
40 42 43 45 43 42 42 41 42 42 41 42 41 42 43 42 46 47 47 43 40 41 43 44 49 47 50 52 45 42 40 43 44 47 47 51 55 53 57 48 47 46 43
42 43 44 45 43 43 42 42 42 41 41 40 40 41 41 43 44 47 48 45 42 41 41 42 45 50 52 53 52 44 44 47 47 43 42 42 42 44 47 49 48 49 45
42 43 43 43 44 44 42 42 41 40 39 39 39 39 41 43 45 46 49 50 50 42 42 43 43 50 51 52 51 51 52 51 42 41 40 40 40 41 44 49 50 51 49
41 42 42 43 43 43 41 39 38 39 38 38 39 39 40 42 43 46 47 50 51 48 46 45 48 50 52 50 52 52 53 44 43 43 40 40 41 43 45 45 48 51 50
41 41 42 41 41 41 39 39 38 38 38 42 43 42 42 42 42 42 42 42 47 48 50 47 48 48 50 46 47 46 44 42 41 40 39 41 43 43 44 47 45 46 47
40 41 41 40 39 38 38 38 39 41 43 43 43 43 41 41 43 46 45 41 41 42 44 43 42 41 39 39 39 40 41 42 42 41 41 42 43 46 47 48 46 47 46
39 39 39 38 38 38 37 37 42 47 48 48 48 46 45 46 47 50 50 49 44 47 40 37 37 39 37 37 38 39 39 43 42 42 44 44 45 45 46 46 47 45 46
39 39 38 38 37 37 37 37 39 44 47 47 47 47 46 45 45 47 46 46 48 47 37 37 38 40 41 41 41 38 39 41 42 42 43 44 46 46 46 46 46 46 46
40 42 38 37 37 37 37 39 40 39 38 39 43 44 45 45 44 43 43 42 40 41 40 39 39 40 42 42 43 41 41 41 42 43 45 45 44 45 45 45 46 46 45
39 38 38 38 38 38 38 39 40 39 38 38 40 42 43 43 43 43 42 38 37 37 37 37 38 39 40 41 42 43 44 44 43 42 43 44 45 46 45 45 45 46 46
38 40 39 38 37 37 38 38 38 37 37 37 37 39 40 40 38 38 39 39 38 38 38 38 39 40 40 40 40 40 40 41 41 42 43 44 45 45 45 45 46 45 45
37 37 39 37 37 37 37 37 37 37 36 36 37 41 42 39 38 38 38 37 37 37 37 38 38 38 39 39 39 40 40 40 40 40 41 42 43 43 45 45 45 46 46
37 37 37 36 37 37 37 37 36 36 36 36 38 39 41 39 39 39 38 38 39 39 38 38 38 38 39 38 38 37 37 38 40 40 41 41 42 43 44 45 45 45 46
37 36 36 36 37 38 36 36 36 36 37 37 38 38 38 38 38 38 38 38 39 39 39 38 37 38 39 39 40 39 38 38 39 41 41 42 42 43 44 45 45 46 48
37 36 35 36 36 36 36 35 36 37 37 37 37 38 38 38 38 38 38 38 38 38 38 38 38 37 37 38 40 41 40 41 41 41 41 42 43 44 45 48 48 49 48
36 36 35 35 35 35 35 35 36 36 37 37 37 38 38 39 38 38 38 36 36 36 37 37 37 37 37 39 40 40 40 40 41 42 43 44 46 48 48 48 49 48 48
36 36 35 35 35 35 35 35 35 36 37 37 38 38 38 39 39 38 38 36 36 36 37 38 37 37 38 39 40 40 40 40 41 42 45 48 48 48 49 48 48 48 47

GFSGL_sfc_temp_054.txt.gz
Temp
47 46 45 45 45 44 43 44 44 44 44 46 47 47 47 47 47 46 46 46 46 46 47 47 48 49 47 50 48 50 49 47 45 47 46 47 46 49 54 56 57 56 57
46 45 45 44 43 42 41 42 43 44 46 46 46 46 46 47 47 45 45 46 45 44 45 46 46 51 50 50 49 48 49 47 46 44 44 45 45 48 50 50 56 59 54
45 43 43 43 42 41 41 42 45 45 45 46 46 46 46 46 46 46 46 45 45 45 45 45 45 47 47 50 48 47 47 50 46 45 44 46 45 46 47 49 50 54 57
43 42 41 40 41 40 41 45 45 45 44 45 46 48 48 46 46 46 45 45 44 46 47 45 45 46 47 47 48 46 46 44 45 46 44 46 45 46 45 46 45 47 51
42 41 41 42 41 42 43 44 44 46 47 47 47 47 47 47 48 46 45 44 45 43 46 46 47 48 52 51 47 46 45 42 41 44 44 45 42 42 43 46 45 46 48
40 41 42 43 42 43 43 43 44 45 46 46 45 45 44 46 48 49 48 45 45 44 41 45 46 48 49 52 53 54 49 45 43 41 42 44 42 42 43 44 45 42 43
39 40 41 41 42 42 44 45 43 44 45 44 44 43 42 43 48 49 49 46 44 44 44 42 44 45 47 47 49 52 50 51 50 44 42 42 42 43 43 42 44 43 44
37 39 39 41 41 43 44 44 44 44 43 42 42 43 42 44 47 48 49 46 44 44 43 42 43 44 44 45 45 44 45 46 46 48 46 45 45 46 47 46 45 45 46
38 37 40 41 40 43 42 42 42 42 41 42 43 42 41 40 45 46 47 44 43 42 43 43 42 42 47 50 46 43 43 43 52 53 52 53 55 55 50 46 43 42 41
39 39 41 41 41 42 42 42 43 42 42 42 41 42 43 42 44 46 46 44 42 40 41 42 48 46 49 50 46 43 40 40 43 46 48 51 53 52 55 48 46 42 41
40 41 40 41 43 43 43 43 42 40 40 39 40 41 42 43 43 46 47 45 42 41 40 40 42 48 50 50 51 43 43 44 45 43 45 43 44 45 45 45 45 46 42
39 39 39 42 43 44 42 41 39 39 38 38 39 40 43 45 47 47 47 47 47 43 40 41 41 48 49 51 50 49 50 49 43 41 42 40 39 40 41 44 46 46 47
37 37 39 41 43 43 40 38 38 38 38 38 39 41 43 45 45 48 48 48 48 46 43 43 47 48 50 49 51 51 49 44 41 39 39 39 40 41 41 43 46 49 46
35 36 40 40 41 40 39 39 38 38 38 41 41 41 41 42 43 45 45 44 46 46 48 45 47 47 49 46 47 46 45 43 44 39 39 41 40 40 41 43 43 45 45
36 40 41 41 39 38 38 38 39 41 44 41 41 42 40 40 42 48 49 42 41 42 44 41 40 38 38 37 38 41 40 43 40 39 40 39 40 41 42 43 43 44 45
38 39 39 39 38 38 37 37 42 45 46 46 47 45 43 46 46 48 49 45 45 45 38 36 36 39 36 36 36 37 38 42 40 40 40 40 41 43 43 45 43 43 46
38 38 38 38 37 37 37 36 36 41 44 44 45 47 46 45 44 44 45 46 47 45 36 35 35 35 36 36 36 36 37 39 40 40 40 41 44 46 46 45 44 45 46
38 40 38 38 37 37 37 37 38 37 37 38 42 44 45 44 44 43 42 40 37 38 38 38 39 40 41 41 41 41 40 38 38 40 41 42 45 45 45 43 44 45 45
37 37 38 38 37 38 38 38 38 37 37 37 39 41 42 43 44 42 41 37 36 36 37 37 39 39 40 40 41 43 42 42 40 40 41 42 45 45 44 44 46 47 46
36 40 40 37 37 37 37 37 36 36 36 37 38 38 40 39 38 38 38 37 36 36 36 36 37 38 39 39 40 41 41 44 43 43 42 42 43 45 45 44 46 46 46
36 37 40 37 36 37 37 36 36 36 36 37 37 40 42 38 37 36 36 36 35 35 35 36 36 37 37 37 37 38 39 40 41 43 42 42 43 43 46 47 47 46 45
35 36 37 36 36 36 36 36 36 36 36 37 37 39 41 37 37 36 36 36 36 36 36 36 36 36 36 36 37 37 37 38 40 41 42 43 44 45 46 46 45 45 45
36 36 36 36 36 37 36 36 36 36 37 37 37 38 38 36 37 36 36 36 36 36 35 35 35 35 36 36 39 39 38 37 39 41 41 42 42 43 44 44 44 44 44
36 36 35 35 36 35 35 35 36 37 37 37 37 37 37 37 36 36 35 36 36 36 35 35 36 35 35 36 39 41 41 41 41 40 42 42 42 43 44 44 45 46 45
36 35 35 35 35 35 35 35 35 36 37 37 37 37 37 37 35 36 36 36 36 35 35 35 36 36 36 37 39 40 40 40 41 41 42 43 44 45 45 45 45 46 48
36 36 35 35 35 35 35 34 35 35 36 37 37 37 37 36 37 37 37 37 35 35 35 35 36 36 37 38 40 40 40 40 41 42 43 44 44 45 47 48 48 48 48

GFSGL_sfc_temp_060.txt.gz
Temp
44 43 42 42 42 41 40 40 41 41 41 42 43 43 43 43 43 42 42 43 42 42 42 42 42 43 42 42 40 42 42 42 38 43 44 45 44 45 50 51 53 53 54
43 42 41 41 40 38 38 39 40 41 43 42 43 42 43 43 43 42 42 46 45 45 43 42 42 45 42 42 41 40 41 41 40 39 43 41 42 44 47 47 53 57 53
41 40 39 39 38 38 39 41 41 41 41 42 42 41 42 42 43 45 47 46 46 46 46 44 44 44 42 42 42 43 41 44 41 39 40 40 42 42 45 46 47 48 53
40 39 38 37 38 39 40 41 41 41 41 41 41 42 43 45 46 46 46 46 46 46 46 46 45 45 44 43 44 41 41 38 39 39 40 40 41 43 44 45 45 45 48
38 38 37 38 37 38 39 40 40 41 41 42 43 46 46 46 47 46 46 45 44 44 44 46 46 47 49 48 45 43 41 38 38 38 39 40 41 42 42 45 45 45 45
36 36 38 38 39 39 39 39 40 40 41 45 45 45 44 46 48 49 48 45 45 44 42 43 45 47 48 51 52 51 46 39 37 37 39 39 40 43 45 44 44 45 44
35 36 37 38 37 38 39 39 39 38 42 43 43 43 42 43 47 49 50 47 46 45 44 43 44 46 46 46 46 50 51 52 51 43 39 40 41 44 45 44 43 44 43
34 34 36 37 37 38 38 37 38 40 42 42 42 43 42 43 47 48 49 47 46 46 46 44 43 44 44 43 42 41 41 41 42 44 43 42 44 46 47 47 46 46 47
34 34 36 37 36 37 36 38 40 42 42 41 42 41 40 41 46 49 49 45 45 44 46 45 44 43 46 48 43 40 40 40 47 51 52 50 50 51 50 46 44 43 42
34 36 37 37 36 36 39 39 42 42 41 40 40 41 42 42 46 48 49 46 43 44 45 44 47 45 46 47 43 40 39 39 42 44 45 49 50 48 53 49 47 44 41
36 37 36 37 36 39 41 43 42 41 40 39 39 41 42 44 45 49 49 46 45 44 43 42 43 47 48 50 50 41 41 44 45 44 43 44 44 46 48 48 48 48 43
35 35 35 36 39 43 42 41 40 39 38 38 39 40 43 44 46 47 49 50 50 46 43 42 43 46 48 49 49 50 50 49 43 40 41 42 43 42 45 47 47 47 48
34 33 34 35 40 42 40 38 38 39 38 38 40 39 40 43 43 46 48 49 48 44 44 44 45 46 48 47 48 48 49 45 41 40 40 39 41 43 45 46 46 46 45
31 32 35 39 40 41 40 39 38 38 37 38 39 39 40 41 41 42 43 44 45 45 46 43 44 45 47 45 44 42 44 44 42 40 40 40 42 42 43 44 44 43 42
31 34 39 39 39 38 39 39 38 39 41 40 40 40 39 38 41 43 42 43 43 45 43 41 37 36 36 37 40 39 41 43 42 41 39 38 41 42 42 43 43 43 41
30 38 38 38 38 38 37 37 42 42 43 43 45 43 42 45 46 44 42 42 44 45 40 37 34 34 34 34 36 38 39 42 41 41 41 42 40 40 40 41 42 43 42
31 38 37 38 37 37 36 36 35 39 42 42 43 44 45 45 45 44 42 41 41 40 36 36 33 34 34 34 35 35 37 40 40 41 40 39 40 40 41 42 44 43 43
34 39 35 36 37 36 36 36 37 36 35 37 41 42 43 44 44 42 41 38 35 36 35 35 35 37 39 38 35 35 35 36 37 38 39 39 40 41 41 44 44 44 42
36 36 37 37 37 37 37 37 37 36 36 36 37 39 41 43 42 41 40 34 33 33 34 34 35 36 36 38 40 40 37 36 36 36 37 38 39 44 43 44 44 46 47
36 38 39 37 36 36 36 36 36 36 36 36 36 36 37 36 34 34 34 34 33 33 34 34 35 36 36 36 37 38 40 41 41 37 39 37 38 40 42 44 44 44 45
35 34 39 36 35 35 36 36 36 35 36 36 36 37 42 34 33 33 33 33 33 33 33 34 34 35 36 36 36 37 38 39 42 40 38 41 43 43 41 45 45 45 44
32 35 36 35 35 36 36 36 35 36 36 36 36 37 40 35 35 35 34 34 34 34 35 35 34 35 35 35 36 36 37 38 40 42 43 44 44 44 44 45 45 45 43
36 35 35 35 35 37 35 35 35 35 35 35 36 36 36 35 35 35 33 34 34 34 35 35 34 34 35 36 36 37 36 38 39 41 43 42 42 43 44 44 45 44 44
36 35 34 35 35 35 34 34 35 36 36 36 34 35 35 35 35 35 33 34 34 34 34 34 34 34 34 35 36 37 38 39 41 40 42 43 43 43 43 42 44 44 44
35 35 34 34 34 34 34 34 34 35 35 36 36 36 36 36 35 34 33 34 34 34 34 34 34 33 34 34 35 37 38 39 40 41 42 44 44 44 43 44 45 46 46
35 35 34 35 34 34 33 33 33 34 35 36 36 36 35 35 34 33 34 33 33 33 34 33 33 33 35 38 40 40 40 40 40 41 42 43 44 44 45 45 45 45 44

GFSGL_sfc_temp_063.txt.gz
Temp
54 54 53 53 53 52 51 51 51 51 50 49 49 49 48 48 49 49 49 48 47 48 49 47 47 48 49 49 49 49 48 48 44 48 52 55 55 55 58 62 63 63 64
52 52 52 51 51 50 50 50 50 49 49 48 48 47 48 48 49 48 47 48 47 47 47 47 47 49 47 48 48 47 47 49 46 43 49 51 52 54 56 56 59 62 63
50 50 49 49 49 49 49 49 49 49 48 48 47 46 47 47 48 48 48 48 47 48 48 48 48 48 47 47 46 45 46 47 47 45 44 48 50 53 52 55 55 56 60
48 48 47 48 48 48 48 47 47 47 46 47 47 47 47 47 48 48 48 48 48 48 48 47 47 48 47 48 47 46 47 46 46 45 44 44 47 50 51 50 51 54 55
47 47 47 47 47 46 46 46 46 46 46 46 46 47 48 48 48 47 47 46 46 46 46 46 46 47 49 49 47 47 47 45 44 42 41 43 45 46 46 50 49 51 54
46 45 45 45 45 44 45 45 45 45 46 46 45 47 46 47 48 49 48 46 47 45 44 46 47 48 48 51 51 51 45 44 41 40 40 41 44 46 48 47 48 48 47
45 45 44 44 43 43 44 43 43 43 44 44 45 45 44 45 48 49 50 48 46 46 46 46 46 47 47 46 47 50 51 52 48 41 40 41 41 48 48 47 47 48 49
43 43 43 43 42 43 42 42 43 44 44 44 44 44 43 44 47 49 50 48 47 47 47 46 45 45 46 45 44 43 45 47 48 49 46 45 47 48 49 49 49 48 50
42 42 42 43 41 41 41 42 43 42 44 43 43 42 41 42 47 49 49 46 45 45 46 46 46 45 48 49 44 41 42 45 50 50 51 51 51 50 49 48 46 44 42
42 41 42 42 41 40 41 41 42 43 42 42 41 42 43 44 46 48 48 46 44 44 46 47 49 48 48 48 45 43 42 44 47 48 49 50 51 50 52 49 48 43 43
41 41 41 41 40 41 42 43 43 41 41 40 40 41 42 43 44 48 49 46 44 45 45 45 45 48 49 49 49 46 46 49 48 48 48 47 46 49 50 50 50 46 43
40 40 40 40 41 42 41 42 42 40 38 39 39 40 42 43 47 47 48 49 48 44 43 43 44 46 48 49 50 50 51 50 47 47 45 42 42 44 46 50 49 49 48
39 39 39 40 43 43 41 40 37 38 38 38 38 39 40 43 45 46 46 47 46 44 47 46 46 47 48 49 48 48 48 47 47 41 42 44 43 43 47 46 47 48 47
38 38 39 41 42 41 41 39 37 37 37 37 39 38 39 40 41 43 42 42 42 45 46 46 47 47 48 47 47 44 46 45 44 45 45 46 44 44 46 48 45 45 47
38 38 40 41 41 40 40 39 38 39 40 39 39 40 38 38 41 44 43 41 40 43 45 42 43 45 45 46 45 43 43 42 45 45 46 45 45 43 46 47 46 47 48
37 38 40 40 39 38 37 37 41 42 43 43 44 43 42 45 46 46 45 43 41 42 41 40 40 41 42 42 43 42 40 41 43 46 45 46 42 42 44 45 44 46 48
36 37 39 37 37 37 36 36 35 38 41 42 43 45 45 45 45 44 43 40 40 39 35 35 37 39 40 42 42 42 38 39 44 45 45 46 43 46 46 46 45 46 48
37 38 37 37 37 36 36 36 36 36 35 36 41 43 43 44 43 42 41 38 35 36 35 34 35 36 37 39 43 43 42 41 41 44 46 45 45 47 46 46 46 46 47
37 37 38 38 37 37 36 36 37 36 36 37 37 40 42 43 42 41 40 35 33 33 34 34 35 36 36 37 39 42 43 44 43 44 46 47 47 48 47 47 47 46 46
38 39 39 38 36 35 36 36 36 36 36 36 36 37 39 40 37 36 36 35 34 34 34 34 34 35 36 36 37 39 40 45 45 45 45 46 47 49 49 48 46 46 46
38 37 39 36 36 35 36 36 36 35 35 36 37 39 42 38 35 35 34 34 34 34 34 34 34 35 35 36 36 37 38 40 45 45 45 45 47 45 49 47 46 47 47
36 36 36 35 35 35 35 36 35 35 35 35 37 38 40 38 35 35 34 34 34 34 35 35 34 35 35 35 36 36 37 38 41 43 44 46 47 47 46 48 46 46 46
37 36 36 36 35 36 35 35 35 35 35 36 35 36 36 36 35 34 34 34 34 34 35 34 34 35 35 36 36 37 36 37 40 42 44 45 45 45 45 47 46 46 47
37 36 36 35 35 34 34 34 34 35 35 36 35 36 35 36 34 34 34 34 34 34 34 34 34 34 34 35 36 37 38 39 41 41 43 45 45 45 45 45 47 46 49
36 35 36 34 35 34 33 33 34 34 35 35 35 35 36 36 34 34 34 34 34 34 34 34 34 34 34 35 35 36 37 38 40 41 42 45 46 46 46 45 46 48 47
37 37 36 35 34 34 34 33 33 34 34 34 35 35 36 34 34 34 34 34 33 33 33 34 33 33 35 37 38 37 37 38 39 41 43 44 44 44 46 46 46 47 48

GFSGL_sfc_temp_066.txt.gz
Temp
64 64 63 63 63 62 61 60 60 59 59 58 57 56 56 55 56 55 55 55 54 53 53 51 50 51 49 50 50 48 47 47 44 50 55 59 59 59 61 62 63 64 66
61 61 62 61 60 60 60 60 60 58 58 57 56 55 55 55 55 54 53 54 52 50 49 49 49 51 50 50 49 49 49 48 44 42 48 52 56 58 59 59 61 65 64
60 60 60 59 59 58 58 58 58 57 57 57 55 54 54 53 53 54 53 51 50 49 49 49 49 50 49 49 49 49 50 51 49 45 44 48 51 55 55 57 58 59 63
58 58 57 58 57 56 56 56 56 56 55 55 54 54 53 53 53 53 51 49 49 50 50 50 51 50 49 47 47 47 49 47 48 47 44 46 47 50 53 52 53 58 58
57 56 56 56 56 55 54 54 54 54 54 53 53 53 53 52 52 51 50 48 48 48 48 48 49 50 51 50 48 47 47 47 47 47 46 46 46 46 46 52 51 54 58
56 55 55 54 54 53 53 52 52 52 52 52 51 50 49 51 50 50 49 47 47 48 46 50 51 50 49 51 52 53 48 45 47 48 47 46 45 46 50 51 52 51 48
55 55 54 53 52 51 52 51 50 50 51 47 47 47 47 48 49 50 50 49 49 49 49 50 49 50 51 50 51 53 52 53 49 46 43 45 45 49 50 47 48 50 50
53 53 53 52 50 50 50 49 50 50 47 46 46 47 46 46 48 49 50 50 49 47 51 49 46 46 47 47 46 45 46 46 48 49 44 43 44 47 48 50 49 50 53
52 51 51 50 49 49 47 48 49 47 47 46 46 45 45 46 48 49 49 47 49 48 49 48 47 47 49 50 46 44 44 44 48 50 52 50 49 50 51 48 47 46 45
51 49 50 50 49 47 47 47 45 45 45 44 43 44 46 44 47 48 49 48 45 48 45 46 49 48 51 52 47 45 41 42 44 46 51 52 53 53 53 51 51 47 44
50 49 49 49 48 48 47 45 44 44 45 42 41 44 43 45 44 48 50 46 46 43 42 45 45 49 50 50 49 49 46 47 48 50 50 50 52 52 51 52 51 51 46
49 48 49 49 48 49 45 44 44 44 40 39 39 40 43 46 45 46 49 48 48 42 41 45 50 48 49 49 50 48 49 51 50 48 47 47 48 46 49 52 52 51 52
48 48 48 48 49 47 44 43 42 41 38 38 38 38 40 42 44 48 47 47 47 43 43 46 49 49 49 50 48 49 49 50 49 45 46 45 45 45 47 46 51 53 52
47 47 48 47 47 45 45 44 40 38 37 37 38 38 39 40 44 45 44 44 45 42 43 45 46 48 48 49 50 50 51 49 44 46 47 45 47 45 43 44 46 46 45
46 47 47 47 42 41 44 41 39 39 40 39 39 39 38 38 42 45 45 43 42 42 41 44 41 46 48 49 48 47 45 45 44 48 47 45 44 42 45 48 45 45 43
44 45 46 42 40 41 39 40 41 41 43 44 44 43 45 45 46 45 44 43 43 41 37 36 40 43 44 45 45 44 41 40 43 46 48 48 45 44 45 46 45 45 47
44 44 41 39 40 39 38 36 35 39 41 42 43 44 45 45 45 44 43 43 41 39 35 35 35 37 39 43 44 44 40 39 43 46 48 48 47 45 45 43 44 48 50
44 43 40 39 40 37 36 36 36 36 35 37 42 44 44 45 44 42 42 42 38 38 35 34 34 35 37 38 40 43 42 42 42 46 47 45 44 46 47 48 45 50 49
43 41 40 40 40 39 37 36 36 36 36 37 41 43 44 44 44 43 42 37 35 35 35 34 35 35 36 37 38 42 43 44 45 46 48 49 51 50 50 50 50 49 50
43 42 40 39 39 37 36 36 36 36 36 36 37 39 40 41 40 37 38 36 36 34 34 34 35 35 35 36 37 38 42 44 47 49 49 51 52 52 51 51 51 49 50
40 40 39 38 38 37 36 35 35 35 35 36 37 38 40 38 36 36 35 35 35 35 34 34 34 35 36 36 37 37 38 41 43 49 50 50 51 51 52 51 51 50 50
41 39 37 37 37 36 35 35 35 35 35 35 36 37 39 37 37 36 36 35 36 35 35 35 35 35 35 36 36 36 37 38 41 47 50 50 51 51 51 51 48 47 48
42 38 37 38 37 37 35 35 34 35 35 36 36 35 39 37 36 36 35 35 35 35 35 35 35 35 36 36 38 38 37 37 40 44 49 49 49 51 50 49 49 50 48
40 37 36 37 36 36 35 35 34 35 35 35 36 38 38 36 35 36 35 35 35 35 35 34 35 34 35 36 37 38 39 41 41 42 44 46 47 49 50 49 49 51 48
39 37 37 36 35 34 34 35 35 36 35 36 37 37 37 37 37 36 35 35 34 34 34 34 34 35 35 35 36 37 38 39 41 41 43 47 46 48 49 48 49 51 51
39 39 38 36 35 35 34 34 35 36 37 36 37 36 36 35 36 35 35 34 34 33 33 34 33 33 35 36 36 37 37 38 39 40 43 45 47 46 47 47 49 50 51

GFSGL_sfc_temp_069.txt.gz
Temp
67 67 66 66 66 65 64 63 63 62 62 60 60 59 59 58 58 57 57 56 55 55 54 52 52 52 50 50 49 49 47 46 41 46 50 53 55 55 59 61 61 60 61
65 64 64 64 64 63 63 63 63 61 61 60 59 58 57 57 57 56 54 55 53 51 51 51 51 52 49 51 50 49 48 49 45 42 47 48 50 53 55 56 59 62 61
64 63 63 62 62 61 61 61 61 60 59 59 58 56 56 56 55 55 54 53 52 52 51 50 50 50 50 50 50 49 48 49 48 46 45 49 49 50 50 53 54 57 61
62 61 60 60 60 59 59 58 58 58 57 57 56 55 55 55 54 52 51 50 50 51 52 51 50 49 48 48 48 49 49 46 46 44 44 45 47 49 49 47 48 53 55
60 60 59 60 59 58 57 56 57 56 56 56 55 55 54 52 51 50 50 49 48 48 49 49 49 50 52 51 49 47 47 45 45 44 43 44 45 45 45 47 47 50 53
60 59 58 57 56 55 55 55 54 54 54 54 54 52 48 49 50 51 50 47 47 46 46 48 49 51 52 53 54 54 51 42 41 43 42 42 45 47 48 47 47 47 46
58 57 57 56 55 54 54 53 52 52 53 52 51 48 47 48 50 51 51 48 47 46 47 48 49 52 51 51 52 52 53 53 52 43 41 42 45 50 50 47 47 47 47
56 56 56 55 53 53 52 51 51 51 50 48 47 47 46 47 49 50 50 47 48 49 48 49 48 48 49 48 47 46 46 47 48 50 46 44 45 46 48 49 49 48 50
55 55 54 53 51 51 49 49 50 49 46 45 46 45 45 46 47 49 49 46 47 47 47 49 47 45 48 51 47 46 45 45 50 52 52 52 51 49 47 44 42 42 42
54 53 53 52 51 50 49 49 50 47 45 45 45 45 45 43 47 48 48 45 45 44 46 47 47 46 49 52 47 46 44 44 45 46 48 50 51 49 50 48 47 43 44
54 53 52 52 51 51 50 50 48 45 45 43 43 44 44 44 44 48 48 46 44 43 42 44 43 46 48 51 51 46 44 46 46 45 46 48 50 49 48 49 49 48 45
52 51 51 52 51 51 50 48 46 44 42 41 40 40 42 43 45 46 48 49 48 43 42 43 43 46 49 51 50 49 48 49 48 47 46 47 46 47 49 50 50 50 51
51 50 51 51 51 51 47 44 43 42 40 39 38 38 39 41 42 46 48 49 48 44 45 45 47 47 49 50 50 49 49 49 46 45 45 45 47 48 50 49 49 50 51
49 50 49 49 49 49 45 44 42 39 38 37 38 38 38 40 41 43 45 44 44 44 44 42 42 47 48 49 49 49 48 46 45 45 45 46 48 45 44 45 44 46 45
49 49 48 49 47 43 42 42 39 40 40 39 39 39 38 39 43 45 45 42 41 43 42 38 38 42 43 44 45 45 45 43 42 43 45 46 45 45 44 45 44 45 44
47 47 47 46 42 40 40 41 44 42 43 43 45 44 44 46 47 45 45 44 44 44 39 35 34 36 38 41 42 44 44 41 41 43 46 44 43 41 43 45 45 44 43
46 46 46 44 41 40 39 37 35 38 41 42 44 46 46 46 46 45 44 43 43 42 36 35 34 35 36 38 40 42 40 40 42 43 45 46 47 45 44 43 43 42 42
47 45 44 41 40 39 38 37 36 35 35 36 43 43 45 45 45 43 43 41 38 39 37 35 34 34 35 36 37 39 41 41 42 44 47 46 45 45 45 43 43 46 46
45 45 44 41 40 40 39 38 36 36 35 36 38 41 43 43 43 43 42 36 35 35 36 35 35 35 35 36 37 38 40 41 42 45 44 44 46 46 47 47 46 48 48
45 42 42 40 39 39 39 36 35 35 35 35 36 37 38 38 38 38 37 36 35 35 36 35 35 35 35 36 37 37 38 41 42 45 46 48 49 50 49 49 48 48 48
42 42 42 38 38 38 38 35 35 34 34 35 37 38 40 39 35 35 35 35 35 34 34 34 34 35 36 36 36 37 38 39 41 42 47 48 50 49 50 49 49 48 48
43 43 40 37 38 37 37 37 35 34 35 35 35 37 40 38 36 35 35 35 35 35 35 35 34 35 36 35 36 36 37 38 39 42 44 49 48 50 49 48 48 47 48
43 41 38 37 38 37 35 36 36 36 36 36 37 37 37 37 36 35 35 35 35 34 35 35 35 35 36 36 37 37 37 38 40 41 42 46 48 49 47 48 47 47 47
42 40 37 38 36 35 35 34 36 37 37 37 37 37 36 36 35 35 35 35 35 35 34 34 34 34 35 36 37 38 38 40 42 41 43 46 47 48 47 47 49 49 48
41 39 38 37 36 34 34 34 35 36 37 37 36 36 36 35 35 35 35 35 34 34 34 33 34 34 35 35 36 38 39 38 40 41 43 47 48 49 48 46 49 49 48
40 40 38 38 36 35 34 33 33 35 35 36 36 36 35 35 35 35 34 34 34 34 33 33 33 33 35 35 36 37 38 38 39 40 42 46 46 46 48 48 48 49 49

GFSGL_sfc_temp_072.txt.gz
Temp
57 56 54 54 55 54 53 53 52 52 52 51 51 50 50 49 49 48 47 47 47 47 47 49 51 52 49 49 49 48 47 46 41 43 44 46 46 47 50 51 53 53 52
56 54 54 54 53 51 51 52 52 51 51 51 50 49 49 49 48 47 46 48 47 46 50 50 49 52 49 49 47 44 44 45 42 39 43 43 44 46 47 47 51 55 53
55 52 52 51 51 50 49 50 50 49 49 49 50 48 49 49 49 49 49 49 51 50 49 48 49 49 47 47 47 47 47 47 45 43 42 45 45 47 46 46 47 48 53
54 51 50 50 49 48 49 49 49 49 49 48 48 49 49 50 47 47 47 48 49 49 49 49 49 48 47 47 47 46 46 45 45 44 43 44 45 45 44 43 42 44 45
52 50 49 49 49 49 48 48 48 48 49 48 49 49 48 46 48 48 48 47 46 46 47 47 48 49 52 52 48 45 44 44 43 43 42 42 43 43 41 43 42 43 44
50 49 50 49 48 47 47 46 46 45 45 47 47 46 43 48 51 51 49 46 46 45 44 46 46 49 49 52 53 54 52 46 40 40 40 40 41 44 45 43 41 40 38
49 49 49 49 47 46 46 45 44 43 43 44 41 42 44 46 50 50 51 47 45 44 44 45 45 49 48 47 50 52 51 52 53 47 42 41 41 44 45 44 43 42 41
47 47 48 47 45 45 44 43 42 43 42 39 42 45 44 45 49 50 50 46 45 46 45 45 45 44 45 46 45 45 46 47 48 49 46 45 44 45 45 46 47 44 43
47 46 46 45 44 44 42 41 41 42 39 44 45 44 43 44 47 49 48 45 44 43 45 44 44 44 47 50 45 43 45 46 52 54 52 52 51 50 48 45 42 41 40
46 46 46 45 44 43 42 41 42 40 42 45 44 44 44 42 46 48 47 44 42 42 43 44 47 47 50 50 44 43 42 44 45 45 47 48 50 50 52 47 45 40 40
47 46 45 45 44 43 41 42 39 41 44 42 41 42 43 44 43 46 47 44 42 41 41 41 43 47 49 50 48 45 44 46 45 44 44 45 43 43 44 48 45 43 40
46 45 44 43 45 47 41 38 39 41 40 39 39 40 42 42 44 45 48 48 48 41 40 41 42 47 48 48 47 50 51 49 44 40 40 39 39 39 42 44 45 45 46
44 42 42 43 44 43 38 38 39 39 38 38 37 37 39 41 42 44 47 47 47 43 42 44 46 45 44 45 48 51 48 42 41 41 39 38 39 40 41 42 44 46 46
41 41 41 41 42 39 39 40 38 37 37 37 37 37 38 39 41 41 43 40 44 42 42 40 42 41 43 46 45 46 45 41 39 39 38 42 42 40 40 41 41 43 41
41 41 41 41 38 36 39 39 39 39 39 38 38 38 37 38 40 45 44 42 41 41 42 37 37 36 37 40 42 43 43 42 40 41 42 42 43 43 43 44 43 43 41
40 40 40 39 36 37 37 39 44 43 43 43 44 43 43 45 46 45 46 43 44 44 37 34 34 34 35 36 37 39 41 41 41 41 42 44 43 42 42 42 42 42 41
38 40 38 39 36 36 37 36 35 38 42 42 43 44 45 45 45 44 45 44 43 41 33 33 34 34 34 35 36 37 37 40 42 42 42 44 44 43 44 43 43 43 43
40 45 36 35 36 36 36 36 36 34 34 35 39 42 44 44 44 43 43 40 35 36 35 34 34 34 34 34 35 37 38 39 40 42 42 43 43 44 42 41 40 40 41
40 37 36 37 36 37 37 36 35 35 34 34 36 39 41 42 42 42 41 34 33 33 33 34 35 35 35 35 35 37 38 38 39 42 43 44 44 44 43 43 45 46 45
38 43 41 36 36 36 36 35 34 34 34 34 34 35 37 37 35 34 35 34 34 34 33 32 34 34 35 35 35 36 36 38 39 41 43 44 45 46 45 44 44 45 44
37 37 42 35 35 36 35 35 34 33 33 34 34 37 41 36 33 34 34 34 34 34 33 33 34 34 34 35 35 35 36 37 39 40 42 44 46 43 43 45 44 43 43
36 36 35 36 35 35 35 34 34 33 34 34 34 36 40 35 34 34 34 34 34 34 34 34 34 34 35 35 35 35 36 36 38 40 41 43 45 46 43 43 43 43 43
36 36 36 36 36 37 34 34 34 33 34 35 34 34 35 34 34 34 34 34 34 34 34 34 34 34 35 36 36 36 35 36 38 40 38 42 45 46 43 42 43 42 42
36 35 36 35 36 34 33 33 34 35 35 34 34 34 33 34 34 34 35 35 34 34 34 33 34 34 34 35 36 37 38 39 39 40 41 41 44 46 45 43 43 44 43
35 35 37 35 35 34 33 33 33 33 34 34 34 34 34 34 34 34 34 34 34 34 34 33 33 34 34 35 36 37 38 38 39 40 41 42 44 47 46 43 46 43 44
35 35 36 35 34 33 33 33 33 34 33 33 34 34 34 34 34 34 34 34 34 33 33 33 33 33 35 35 36 37 38 38 38 39 41 41 43 45 46 46 47 43 44

GFSGL_sfc_temp_075.txt.gz
Temp
53 51 51 50 50 49 48 48 48 48 48 48 48 47 47 46 46 44 43 43 42 43 42 42 43 44 49 50 49 49 47 46 41 44 42 43 41 43 47 48 49 46 48
52 51 50 49 48 47 46 47 47 47 47 47 47 46 46 46 45 44 43 44 42 44 42 47 48 50 49 49 48 47 46 46 43 39 43 42 41 44 46 45 48 52 49
50 49 48 48 47 45 45 46 46 46 45 45 46 45 46 46 46 44 43 42 42 45 48 48 48 48 47 47 47 45 44 46 44 41 41 43 44 44 43 44 45 46 49
49 47 46 45 45 45 45 45 45 45 44 44 44 45 46 47 45 43 43 41 42 46 47 48 48 47 45 44 45 45 46 44 44 43 42 42 43 46 46 43 41 42 43
48 46 45 46 45 45 44 44 44 43 44 43 44 45 42 43 47 45 46 47 46 46 46 47 47 48 50 50 47 44 44 41 40 40 39 41 41 42 41 43 41 42 43
45 45 46 46 45 43 43 43 42 41 41 42 41 40 39 45 49 50 49 46 46 45 43 45 46 48 48 50 52 52 50 45 43 41 40 39 40 41 44 42 41 38 36
45 45 45 45 43 43 43 42 41 39 39 38 37 38 38 43 49 50 50 46 44 44 43 44 45 47 47 46 48 51 50 51 51 46 43 41 40 42 44 43 43 42 41
43 44 43 43 42 42 41 40 39 38 38 37 37 39 44 45 49 49 50 46 44 44 44 44 42 42 43 44 44 44 44 45 46 47 45 45 46 45 45 45 45 44 45
43 42 43 42 41 41 39 38 38 36 35 36 39 42 43 43 47 48 48 44 43 43 44 43 43 42 46 49 45 43 42 43 49 51 53 53 53 52 48 44 41 40 40
43 43 43 42 41 40 39 38 36 36 37 40 40 43 44 41 45 47 47 43 39 42 42 43 47 46 49 49 45 43 41 40 43 44 46 47 48 51 51 46 45 41 41
44 44 43 42 40 40 38 36 35 35 36 36 39 40 41 42 43 46 48 44 42 41 40 40 41 46 47 48 49 43 43 44 45 44 43 44 44 43 44 47 46 44 41
43 42 41 40 42 44 35 34 34 34 34 35 39 39 40 42 44 45 48 49 48 40 38 40 40 45 47 47 45 47 48 47 42 40 39 39 39 39 40 41 44 45 46
41 39 39 39 40 38 34 33 34 34 35 37 37 37 38 40 41 45 47 47 46 42 42 43 45 45 44 41 46 48 46 40 38 37 37 37 37 39 39 39 41 43 44
39 38 38 38 39 35 36 36 35 35 37 36 37 36 37 38 39 41 40 41 42 41 42 41 41 42 42 42 42 43 44 42 40 41 39 37 39 42 41 39 39 40 41
38 37 37 38 35 33 35 35 37 39 39 37 37 37 37 37 40 45 44 42 41 41 42 36 33 37 36 37 38 38 41 41 39 41 40 41 42 42 40 41 43 42 39
37 37 36 36 33 33 34 36 42 43 44 43 43 42 41 43 45 45 45 45 43 44 37 32 33 34 34 35 35 36 37 38 39 41 42 42 42 42 42 42 43 42 41
36 37 35 35 33 33 34 35 34 38 42 42 42 43 44 44 45 45 44 43 42 40 33 31 31 34 34 34 34 35 36 38 40 39 40 42 43 43 42 42 41 41 41
37 42 33 33 32 33 34 35 35 34 33 34 40 41 42 43 43 43 43 40 34 35 33 32 31 34 34 34 34 35 36 37 37 38 40 42 43 43 42 39 39 41 41
37 35 35 34 36 37 35 35 35 34 33 34 35 38 40 41 41 42 41 34 33 33 33 33 33 33 34 35 35 35 36 36 37 38 41 43 43 43 43 43 43 41 42
36 41 40 36 34 34 35 34 34 33 33 33 34 34 35 37 34 34 35 34 34 33 34 33 33 34 34 34 35 35 35 36 36 38 39 42 44 44 44 43 43 44 41
34 34 39 33 33 34 34 34 33 33 33 33 33 36 40 35 33 33 34 34 34 33 33 33 34 34 34 34 34 35 35 36 36 37 39 41 43 42 44 44 43 44 45
33 33 33 35 34 34 35 34 34 33 34 33 33 35 39 35 34 34 34 34 34 34 34 34 33 34 34 34 35 35 35 35 36 37 39 41 43 43 42 42 41 43 45
33 33 35 36 34 36 33 33 33 33 33 33 33 33 34 33 34 34 34 34 34 34 34 34 34 34 35 35 36 36 35 35 37 38 37 39 43 42 41 41 41 42 41
33 32 36 35 35 34 33 33 33 34 34 33 33 34 33 33 34 34 34 34 34 34 34 34 34 34 34 35 36 37 37 38 38 37 37 40 42 44 42 41 41 43 45
32 31 33 34 32 32 33 33 32 33 33 33 33 33 33 34 34 34 34 34 34 33 33 33 33 34 34 35 36 36 37 38 39 39 39 41 42 44 45 41 42 42 45
32 32 35 34 32 33 32 32 32 33 33 33 33 33 33 33 33 33 34 34 33 33 33 33 33 33 34 35 36 37 38 38 37 39 39 41 41 43 44 44 42 41 44